GFSNE_850_temp_084.txt.gz
Temp
11 10 10 11 10 10 10 10 10 11 10 11 11 11 11 11 11 11 11 10 11 10 10 9 9 8 8 7 7 6 6 5 5 5 5 4 4 4
10 10 10 10 10 10 9 11 10 10 9 10 10 10 10 10 11 10 10 10 10 10 10 10 9 8 7 7 6 6 6 5 5 5 4 4 3 3
11 11 11 11 11 11 10 10 10 10 9 10 10 10 10 10 10 10 9 9 9 9 9 9 8 8 7 7 6 5 5 5 4 4 4 4 3 3
10 10 11 11 10 10 10 10 10 10 10 10 10 10 10 10 10 9 10 9 9 9 9 8 7 8 8 7 6 5 4 4 3 2 3 3 3 3
10 10 10 10 10 10 10 10 10 10 10 10 10 10 10 10 10 9 9 9 8 8 8 8 7 7 6 5 5 4 3 3 2 1 2 2 2 1
10 10 10 10 10 10 10 10 10 10 10 9 9 9 9 9 8 9 8 9 9 8 8 7 7 6 5 4 4 2 2 2 2 -1 1 1 1 1
9 9 9 10 10 10 10 10 10 9 10 9 9 8 8 8 9 10 9 8 8 7 7 7 6 6 5 3 2 1 0 1 -1 -2 -0 1 1 0
9 9 9 9 10 10 9 9 9 9 9 8 8 7 8 8 8 8 8 7 7 7 7 5 5 4 3 2 1 1 -0 -1 -3 -2 -1 -1 -0 -1
9 9 9 10 10 10 9 8 8 8 8 8 8 8 8 8 8 8 7 7 7 6 5 4 2 2 1 1 -0 -1 -2 -4 -3 -2 -2 -2 -2 -2
10 10 9 10 10 10 9 9 9 8 8 8 8 8 8 8 7 7 7 6 5 4 2 1 0 -0 -1 -1 -2 -3 -4 -5 -4 -3 -3 -3 -3 -4
10 10 10 10 10 10 9 9 9 8 8 8 8 8 8 8 7 6 5 4 2 -0 -1 -1 -2 -2 -3 -3 -5 -6 -5 -4 -4 -4 -4 -4 -5 -5
10 10 9 9 10 10 10 9 9 8 8 8 7 7 6 6 5 3 2 2 1 -2 -3 -3 -3 -4 -5 -6 -7 -6 -6 -6 -6 -6 -5 -6 -6 -6
10 10 9 9 9 9 8 8 8 7 5 2 0 -0 -0 -1 -1 -2 -1 -2 -2 -3 -4 -5 -6 -7 -7 -7 -7 -7 -7 -7 -7 -6 -6 -6 -6 -7
10 9 9 8 8 8 8 7 7 4 1 -2 -2 -3 -3 -3 -3 -3 -4 -4 -4 -5 -5 -6 -7 -7 -8 -8 -9 -8 -8 -8 -8 -8 -8 -8 -9 -10
8 5 2 2 1 1 -1 -2 -2 -4 -4 -4 -4 -4 -5 -5 -5 -6 -6 -7 -7 -7 -8 -8 -9 -9 -10 -10 -11 -11 -11 -11 -10 -11 -12 -11 -11 -11
-3 -1 -1 -3 -4 -6 -5 -5 -5 -5 -5 -5 -5 -6 -7 -7 -7 -7 -7 -8 -8 -8 -8 -9 -10 -10 -11 -11 -12 -12 -13 -13 -13 -13 -13 -13 -13 -12
-4 -4 -5 -5 -5 -5 -5 -5 -6 -6 -6 -7 -8 -8 -8 -8 -9 -9 -9 -9 -10 -10 -11 -11 -11 -12 -13 -13 -13 -14 -14 -14 -14 -15 -15 -15 -14 -13
-5 -5 -6 -6 -6 -6 -7 -7 -7 -8 -8 -8 -9 -9 -9 -10 -10 -11 -11 -12 -12 -13 -13 -13 -13 -13 -14 -13 -15 -15 -15 -15 -15 -16 -15 -16 -15 -14
-5 -7 -8 -9 -9 -8 -8 -9 -9 -10 -10 -10 -10 -11 -12 -12 -12 -13 -13 -13 -14 -14 -15 -16 -16 -16 -17 -17 -15 -15 -16 -16 -17 -17 -17 -17 -16 -16
-8 -8 -9 -9 -11 -11 -11 -11 -11 -11 -12 -12 -12 -13 -13 -14 -14 -14 -15 -16 -16 -16 -16 -17 -17 -17 -18 -19 -19 -17 -17 -17 -17 -17 -17 -17 -16 -16
-10 -11 -11 -11 -11 -11 -12 -12 -13 -13 -14 -14 -15 -15 -15 -16 -16 -16 -16 -16 -17 -17 -17 -17 -18 -18 -18 -18 -17 -17 -16 -17 -17 -18 -17 -17 -16 -16
-12 -12 -13 -13 -13 -13 -14 -14 -15 -15 -16 -16 -16 -16 -16 -16 -16 -16 -16 -17 -17 -18 -18 -18 -18 -18 -18 -19 -19 -18 -17 -17 -16 -16 -16 -16 -17 -16
-13 -14 -14 -14 -15 -15 -15 -15 -15 -16 -16 -16 -16 -15 -15 -16 -16 -16 -17 -18 -18 -18 -19 -18 -19 -19 -19 -19 -19 -19 -18 -17 -16 -15 -14 -14 -15 -14

GFSNE_850_temp_087.txt.gz
Temp
9 10 11 11 11 11 10 10 11 10 10 11 11 11 11 11 11 11 11 11 11 11 10 10 10 10 9 8 8 8 7 7 6 6 6 6 5 5
10 10 11 11 11 11 10 10 10 10 9 10 10 11 11 11 10 10 10 10 10 10 10 10 10 9 9 9 8 8 7 7 7 6 6 5 5 5
10 10 10 10 10 10 10 10 9 9 9 9 10 10 10 10 10 11 10 10 10 10 10 9 9 9 8 8 8 7 7 7 7 6 5 6 6 5
10 10 10 10 10 11 11 10 9 9 10 10 10 10 10 10 10 10 10 10 10 10 10 9 9 9 8 8 7 7 7 7 6 6 5 5 5 3
10 10 10 10 10 10 11 11 10 10 10 10 10 10 10 10 10 10 10 10 10 10 10 10 10 9 8 8 7 7 7 6 6 5 5 4 2 2
10 10 10 10 10 10 10 10 10 10 10 9 9 9 9 9 9 9 9 10 10 10 10 10 9 9 8 7 6 6 6 6 5 4 3 2 1 0
10 10 9 9 10 10 10 10 9 9 9 8 7 7 7 7 8 10 8 9 9 9 9 9 9 8 8 7 6 6 5 4 4 3 2 2 1 -2
9 9 9 9 9 9 9 9 8 7 8 7 7 7 7 7 7 8 7 7 7 8 7 7 8 8 7 7 6 4 3 3 1 0 0 -1 -1 -4
9 10 9 10 10 9 9 8 8 7 7 7 6 7 7 7 7 7 7 7 7 7 7 7 7 6 6 5 3 2 2 1 -0 -1 -1 -3 -5 -5
10 10 9 9 9 9 9 8 9 8 8 8 7 7 7 7 7 7 8 7 7 7 6 4 4 4 2 2 1 -0 -1 -2 -2 -3 -4 -5 -6 -6
10 10 10 9 10 10 10 10 9 9 9 8 8 8 7 8 8 8 7 7 6 4 4 2 1 -0 -2 -2 -2 -3 -3 -4 -5 -5 -6 -6 -7 -6
10 10 10 9 9 10 9 9 9 9 9 8 8 8 7 7 7 7 6 4 4 1 -0 -1 -3 -3 -4 -4 -4 -5 -5 -6 -6 -7 -7 -7 -7 -7
10 9 8 9 10 9 9 9 8 8 8 7 6 3 1 1 1 1 -0 0 0 -1 -4 -4 -4 -4 -4 -5 -5 -6 -7 -7 -7 -7 -7 -8 -8 -8
7 8 8 8 8 8 7 8 7 6 5 2 -1 -3 -3 -3 -4 -4 -3 -3 -4 -4 -4 -5 -5 -6 -6 -7 -7 -7 -8 -8 -8 -8 -8 -9 -10 -10
5 3 -1 2 4 5 3 0 -2 -3 -3 -4 -4 -4 -5 -5 -5 -5 -4 -5 -5 -6 -6 -7 -7 -8 -8 -9 -9 -10 -9 -9 -10 -10 -10 -11 -11 -11
-1 -3 -1 -2 -2 -3 -4 -4 -4 -4 -4 -4 -5 -6 -5 -5 -5 -6 -6 -7 -7 -8 -8 -8 -9 -9 -10 -10 -11 -12 -12 -12 -13 -13 -13 -13 -13 -13
-4 -4 -4 -5 -5 -6 -6 -6 -6 -6 -6 -7 -8 -8 -8 -8 -8 -8 -8 -8 -9 -10 -10 -11 -11 -11 -11 -12 -12 -12 -13 -13 -14 -14 -14 -14 -14 -13
-4 -6 -7 -7 -7 -7 -7 -8 -8 -8 -9 -9 -9 -9 -9 -9 -9 -10 -10 -10 -10 -11 -11 -11 -11 -11 -12 -13 -13 -14 -14 -14 -14 -14 -14 -15 -15 -14
-6 -8 -8 -8 -8 -9 -9 -9 -10 -10 -10 -10 -9 -9 -10 -10 -9 -10 -11 -12 -12 -13 -13 -13 -14 -14 -14 -14 -13 -15 -16 -15 -16 -15 -16 -16 -16 -16
-8 -8 -9 -9 -10 -10 -10 -10 -10 -11 -11 -12 -12 -12 -12 -12 -12 -13 -13 -14 -14 -15 -15 -15 -15 -15 -16 -16 -16 -13 -15 -16 -17 -16 -16 -16 -15 -15
-10 -10 -10 -10 -11 -11 -11 -12 -12 -12 -12 -13 -13 -13 -13 -14 -14 -14 -15 -15 -15 -15 -16 -16 -16 -17 -17 -17 -17 -15 -14 -15 -16 -17 -16 -16 -15 -15
-12 -12 -12 -12 -13 -13 -13 -13 -13 -14 -14 -14 -14 -15 -15 -15 -15 -16 -16 -16 -16 -17 -17 -17 -17 -17 -17 -18 -17 -16 -15 -14 -14 -15 -15 -15 -17 -17
-13 -13 -13 -14 -14 -14 -15 -15 -15 -15 -15 -15 -15 -16 -16 -16 -17 -17 -17 -17 -17 -17 -17 -17 -17 -17 -17 -17 -17 -16 -16 -16 -15 -14 -12 -13 -13 -14

GFSNE_850_temp_093.txt.gz
Temp
10 10 10 10 11 10 10 10 10 10 10 10 10 10 10 10 10 11 10 11 11 10 10 10 10 10 10 10 10 10 10 10 10 9 9 9 9 8
9 10 11 10 10 10 10 10 10 9 9 9 9 10 10 10 10 9 9 10 9 10 10 10 10 10 10 10 10 10 10 10 10 9 9 9 8 8
9 9 9 9 10 9 9 8 9 8 8 9 9 9 9 10 10 10 10 9 9 9 10 10 10 10 10 9 9 9 10 10 10 9 9 8 8 8
9 9 10 10 9 9 9 9 9 9 9 9 10 10 10 10 10 10 10 9 9 9 10 10 10 10 10 10 10 10 10 10 9 9 9 9 8 8
9 9 9 9 9 9 9 9 9 9 9 9 9 9 9 8 9 10 10 10 10 10 11 11 11 11 10 10 10 10 10 9 9 9 8 8 8 8
9 9 9 9 9 9 9 9 9 9 8 8 8 9 8 9 8 7 7 8 9 10 10 11 11 10 10 10 9 9 9 9 9 9 8 8 8 8
9 9 9 9 9 9 9 9 8 8 8 8 8 7 7 7 7 8 7 8 9 8 8 8 9 10 10 10 10 10 9 8 8 8 8 8 8 7
9 9 9 8 8 8 8 9 8 8 8 7 7 7 7 8 7 7 7 7 7 7 7 7 8 9 9 8 9 8 8 7 7 7 7 7 7 7
9 9 9 9 9 9 9 9 9 9 8 8 8 7 7 7 7 7 7 7 7 7 7 7 7 6 7 7 7 8 7 7 6 6 6 5 3 3
9 9 9 9 9 9 9 9 9 9 9 9 8 8 7 7 7 7 7 7 7 6 6 6 6 6 6 5 5 5 5 5 5 4 2 1 0 -0
8 8 8 8 8 8 8 8 8 8 8 8 7 7 7 7 7 7 6 6 6 5 5 5 4 2 1 -0 -1 -3 -2 -2 -2 -2 -3 -4 -4 -5
7 7 7 7 7 8 7 7 7 6 6 6 6 6 5 5 5 4 4 4 4 3 2 0 -0 -2 -3 -5 -5 -5 -5 -5 -5 -5 -5 -5 -4 -5
5 6 5 5 6 6 6 7 6 6 5 4 4 3 2 2 1 2 1 1 1 0 -1 -2 -3 -3 -4 -6 -7 -6 -6 -6 -6 -6 -6 -6 -6 -7
2 2 1 1 2 3 3 4 4 3 2 1 -0 -1 -2 -2 -4 -3 -3 -3 -3 -4 -5 -5 -4 -5 -5 -8 -8 -8 -8 -8 -7 -7 -7 -7 -7 -7
-2 -2 -2 -2 -2 -1 -3 -3 -2 -2 -2 -3 -4 -4 -5 -6 -6 -6 -6 -6 -6 -6 -6 -6 -6 -7 -7 -7 -8 -8 -9 -8 -8 -8 -9 -9 -8 -8
-4 -4 -4 -4 -4 -4 -4 -4 -5 -5 -5 -5 -6 -7 -7 -6 -6 -6 -6 -7 -6 -6 -7 -7 -7 -8 -8 -8 -9 -9 -10 -9 -9 -9 -9 -9 -9 -10
-5 -5 -5 -5 -5 -6 -6 -6 -7 -7 -7 -7 -7 -7 -7 -7 -7 -8 -8 -8 -8 -10 -9 -9 -9 -9 -9 -9 -10 -11 -11 -11 -11 -11 -11 -11 -10 -10
-5 -5 -6 -7 -7 -7 -7 -7 -7 -7 -8 -8 -8 -8 -8 -8 -8 -9 -9 -9 -10 -11 -11 -11 -11 -11 -11 -11 -11 -12 -12 -11 -11 -11 -12 -12 -10 -10
-5 -6 -7 -8 -8 -9 -9 -9 -9 -9 -10 -9 -9 -10 -10 -10 -10 -10 -11 -11 -12 -12 -12 -12 -12 -12 -13 -14 -13 -13 -13 -13 -12 -12 -13 -12 -12 -10
-7 -8 -8 -9 -9 -10 -10 -10 -10 -11 -11 -11 -11 -11 -11 -12 -12 -12 -13 -13 -14 -14 -14 -14 -13 -13 -14 -15 -14 -14 -14 -13 -13 -13 -13 -12 -11 -10
-9 -9 -10 -11 -11 -12 -12 -12 -12 -12 -13 -12 -12 -13 -13 -13 -13 -14 -14 -14 -14 -15 -15 -15 -15 -15 -15 -14 -15 -14 -13 -13 -13 -13 -12 -12 -11 -10
-11 -12 -12 -12 -13 -13 -14 -14 -14 -14 -14 -14 -14 -14 -14 -14 -14 -15 -15 -15 -15 -15 -15 -15 -15 -15 -15 -15 -15 -14 -13 -12 -12 -12 -13 -13 -13 -13
-13 -14 -14 -14 -14 -14 -14 -14 -14 -15 -15 -15 -15 -15 -15 -15 -15 -15 -15 -16 -16 -16 -16 -16 -16 -15 -15 -15 -15 -16 -14 -12 -11 -11 -13 -13 -12 -12

GFSNE_850_temp_096.txt.gz
Temp
8 8 9 9 10 10 10 10 11 11 11 11 10 11 11 11 11 11 11 11 11 11 10 11 10 10 10 10 10 10 10 10 10 10 10 10 9 10
8 8 8 9 9 10 10 9 10 10 10 11 11 10 10 10 10 10 10 10 10 10 10 10 10 10 10 9 9 9 9 10 9 9 9 9 9 9
8 7 9 8 9 9 10 10 11 10 9 9 9 10 10 9 9 10 11 11 11 10 10 10 10 9 10 10 10 10 10 10 10 10 10 9 9 9
8 9 9 9 9 9 9 10 9 9 10 9 9 9 9 9 10 10 10 9 10 10 11 10 10 10 10 10 10 10 10 10 10 10 10 9 9 9
8 10 10 9 9 9 9 9 10 10 9 9 8 9 9 9 9 9 9 9 9 10 10 11 11 11 11 11 11 11 10 10 10 10 10 10 9 9
10 9 9 9 9 9 9 9 9 9 9 8 8 9 9 9 9 9 9 9 9 9 8 9 10 10 10 11 11 11 10 10 10 10 9 9 9 8
9 9 9 9 9 9 9 9 9 9 9 9 9 9 8 9 9 9 9 9 9 9 9 8 8 8 8 9 9 9 10 10 10 9 8 8 8 8
9 9 9 9 9 9 9 9 9 9 8 8 8 8 8 8 8 8 8 8 8 8 8 8 8 8 8 8 8 8 8 9 9 8 8 8 8 7
8 8 8 8 8 8 9 9 9 8 8 8 8 8 8 8 8 8 8 8 8 7 7 7 7 7 7 7 7 7 7 7 7 7 7 7 7 7
8 8 8 8 8 8 8 8 8 8 8 8 7 7 7 7 7 7 7 7 7 7 7 7 6 6 6 6 5 6 6 6 6 5 4 4 3 2
8 8 8 8 8 8 8 7 7 7 7 7 7 7 7 7 7 6 6 5 6 5 5 4 5 4 2 1 1 0 -1 -1 -1 -1 -1 -2 -3 -3
7 7 7 7 7 7 7 7 7 6 6 5 5 5 5 5 4 4 3 3 3 2 2 1 1 0 -1 -2 -3 -4 -4 -5 -5 -5 -5 -5 -5 -5
4 4 4 4 4 5 5 5 5 4 4 3 2 1 0 -0 -0 -0 -0 0 0 -0 -1 -1 -3 -3 -4 -5 -6 -6 -6 -6 -6 -6 -6 -6 -6 -6
1 1 0 1 1 2 2 0 -0 -0 -0 -1 -2 -2 -2 -3 -4 -3 -3 -3 -3 -4 -4 -5 -5 -5 -5 -6 -7 -7 -7 -7 -6 -6 -6 -6 -6 -7
-1 -2 -3 -3 -2 -2 -4 -3 -3 -3 -4 -4 -4 -4 -5 -5 -5 -5 -6 -6 -5 -5 -5 -5 -5 -6 -7 -8 -9 -9 -10 -7 -7 -7 -7 -7 -8 -7
-4 -4 -4 -4 -4 -4 -4 -4 -4 -4 -5 -5 -6 -7 -7 -7 -6 -7 -7 -7 -7 -7 -7 -7 -7 -7 -7 -8 -9 -10 -10 -11 -10 -10 -9 -9 -8 -8
-5 -5 -4 -4 -5 -5 -5 -5 -6 -6 -6 -7 -8 -9 -9 -9 -8 -8 -9 -9 -10 -11 -11 -10 -9 -8 -8 -10 -11 -11 -11 -12 -12 -10 -9 -8 -8 -9
-4 -4 -5 -6 -6 -7 -7 -7 -7 -7 -7 -8 -9 -10 -10 -11 -12 -11 -12 -12 -12 -12 -12 -12 -12 -12 -11 -11 -10 -12 -12 -13 -12 -11 -11 -11 -9 -12
-5 -7 -8 -10 -10 -11 -11 -11 -10 -9 -9 -9 -10 -10 -11 -11 -12 -13 -13 -13 -13 -13 -13 -14 -13 -13 -11 -11 -13 -11 -12 -12 -12 -13 -13 -13 -12 -12
-10 -12 -12 -13 -13 -13 -13 -12 -12 -12 -11 -12 -12 -12 -14 -14 -14 -14 -14 -14 -14 -14 -14 -14 -14 -13 -14 -14 -15 -13 -12 -12 -12 -12 -12 -12 -13 -12
-12 -13 -14 -14 -14 -14 -14 -13 -12 -12 -12 -13 -14 -14 -14 -14 -14 -15 -15 -13 -15 -15 -15 -15 -14 -13 -15 -15 -14 -14 -15 -14 -12 -12 -12 -12 -13 -12
-12 -13 -13 -13 -13 -13 -13 -13 -14 -14 -14 -15 -14 -14 -15 -16 -16 -16 -16 -16 -16 -16 -16 -16 -16 -16 -16 -15 -15 -15 -14 -15 -14 -14 -13 -13 -13 -13
-13 -13 -13 -13 -14 -14 -14 -14 -14 -14 -14 -15 -16 -17 -15 -17 -17 -17 -17 -17 -16 -17 -17 -16 -16 -16 -16 -15 -16 -14 -14 -14 -14 -13 -13 -13 -12 -11

GFSNE_850_temp_099.txt.gz
Temp
9 9 9 9 10 10 11 12 12 12 12 12 11 11 11 10 10 11 11 11 11 11 11 11 11 11 10 10 10 10 10 10 10 9 9 9 10 10
9 9 9 9 9 10 10 10 11 11 11 12 12 11 11 11 10 10 11 11 11 11 11 11 11 11 10 10 10 10 10 10 10 10 9 9 9 10
9 9 9 8 8 9 10 10 10 10 10 10 11 11 10 9 9 9 10 10 10 10 10 11 11 11 11 11 11 11 11 11 10 10 10 10 9 9
9 9 9 9 9 9 9 9 9 10 10 9 9 11 11 11 10 10 11 10 10 9 10 11 11 11 11 11 11 11 11 11 10 10 10 10 10 10
10 9 8 8 9 9 8 8 9 9 9 9 10 10 10 10 10 10 10 9 10 11 10 10 11 11 11 11 11 10 10 10 10 10 10 10 10 10
8 8 9 8 9 8 10 9 9 9 9 9 10 9 9 10 9 9 9 9 9 10 9 9 10 9 9 9 9 9 9 9 9 9 9 9 9 9
9 9 9 9 9 9 9 9 9 8 8 8 9 9 9 9 9 9 9 10 10 9 10 9 9 9 9 9 9 9 9 9 9 8 8 8 8 9
9 9 9 9 9 9 9 9 9 9 9 9 9 9 9 9 9 9 9 9 9 9 9 9 9 8 8 8 8 9 8 8 8 9 8 8 8 7
9 8 9 9 9 9 9 9 9 8 8 8 8 8 8 8 8 8 9 9 8 8 8 8 8 8 8 8 8 8 8 8 8 7 7 7 6 5
8 9 9 9 9 9 8 8 8 8 8 8 8 7 7 8 7 7 7 7 7 7 6 5 5 6 6 6 6 6 6 6 6 5 4 4 4 3
8 8 8 8 8 8 8 7 7 7 7 7 6 6 6 6 6 6 5 5 4 4 3 3 3 2 3 2 1 1 -0 -1 -0 -1 -1 -1 -1 -2
5 5 6 5 5 6 7 6 6 5 5 5 4 4 3 3 2 2 2 2 2 1 1 -0 0 -1 -1 -1 -2 -3 -3 -4 -4 -4 -4 -5 -5 -5
3 3 3 3 4 4 4 4 4 3 2 2 1 0 -0 -1 -1 -1 -0 0 -0 -1 -1 -2 -3 -3 -3 -4 -4 -4 -4 -5 -5 -5 -5 -5 -5 -5
1 1 1 1 1 2 2 -0 -1 -1 -1 -2 -2 -2 -2 -2 -3 -3 -3 -3 -3 -3 -3 -4 -5 -5 -6 -6 -7 -7 -6 -6 -6 -6 -6 -6 -6 -6
-1 -2 -2 -2 -2 -2 -4 -3 -2 -2 -3 -3 -3 -4 -5 -5 -5 -4 -5 -5 -5 -5 -5 -5 -5 -6 -7 -7 -8 -9 -9 -10 -10 -9 -7 -7 -7 -7
-4 -4 -4 -3 -3 -4 -4 -4 -4 -4 -4 -5 -5 -6 -6 -5 -5 -5 -6 -6 -8 -8 -6 -6 -6 -6 -8 -9 -9 -10 -10 -10 -10 -10 -8 -8 -10 -10
-5 -6 -6 -6 -6 -6 -6 -6 -6 -6 -6 -7 -8 -8 -9 -9 -9 -8 -9 -9 -9 -10 -10 -10 -9 -8 -8 -8 -10 -10 -11 -11 -11 -10 -9 -9 -11 -11
-7 -8 -9 -9 -9 -10 -10 -10 -9 -8 -10 -10 -11 -11 -11 -11 -11 -11 -11 -11 -10 -11 -11 -11 -11 -10 -10 -9 -10 -10 -11 -11 -10 -10 -12 -12 -11 -11
-7 -9 -10 -11 -11 -11 -11 -12 -12 -11 -11 -12 -12 -12 -12 -12 -12 -12 -12 -11 -11 -11 -12 -12 -12 -12 -11 -11 -12 -12 -11 -11 -10 -10 -12 -13 -12 -10
-11 -12 -12 -12 -12 -13 -13 -13 -14 -13 -13 -13 -14 -14 -13 -13 -13 -13 -13 -13 -13 -12 -12 -13 -13 -12 -14 -14 -14 -12 -13 -12 -11 -11 -11 -11 -11 -11
-13 -13 -14 -14 -14 -14 -14 -14 -15 -15 -15 -15 -15 -15 -15 -14 -14 -14 -14 -14 -14 -13 -13 -13 -14 -13 -14 -14 -13 -13 -13 -13 -13 -13 -13 -12 -12 -11
-14 -15 -15 -15 -16 -15 -16 -16 -15 -16 -16 -15 -16 -16 -16 -15 -15 -15 -15 -15 -15 -15 -15 -14 -14 -14 -14 -14 -13 -14 -13 -13 -13 -13 -13 -12 -12 -13
-16 -16 -17 -17 -17 -17 -17 -17 -17 -17 -17 -17 -17 -17 -17 -16 -16 -16 -16 -16 -16 -16 -15 -15 -14 -14 -13 -13 -14 -13 -13 -13 -13 -13 -12 -12 -11 -11

GFSNE_850_temp_102.txt.gz
Temp
10 10 11 11 11 12 11 11 11 11 11 11 11 12 12 12 12 12 12 12 12 12 11 11 11 11 11 11 11 11 10 10 10 10 10 10 10 10
10 10 10 11 10 11 10 10 10 10 11 12 12 12 11 11 11 10 11 11 11 11 11 11 11 11 11 10 11 10 11 11 11 11 11 10 10 10
10 10 10 9 9 9 10 9 9 10 10 11 11 11 11 11 10 11 10 10 10 10 11 11 11 10 10 10 10 10 11 11 10 10 10 10 10 10
9 9 9 8 8 9 9 10 10 10 10 10 11 11 11 11 11 11 10 10 10 10 10 11 11 11 11 11 11 11 10 10 10 10 10 10 10 9
9 9 9 9 8 9 9 9 9 9 9 9 9 10 10 10 10 10 10 11 11 11 11 11 11 10 10 10 10 9 9 9 9 9 9 9 9 9
9 9 9 9 8 9 9 9 9 8 9 9 8 9 10 10 9 9 9 10 10 11 10 9 9 9 9 9 9 9 9 9 9 9 9 9 9 9
9 9 9 9 8 8 9 9 10 9 9 9 9 9 10 9 9 10 9 9 9 9 9 9 9 9 9 9 9 9 9 9 9 9 8 8 8 8
9 9 9 8 8 8 9 8 8 7 8 8 8 9 9 8 9 9 9 9 9 9 9 9 8 8 8 9 8 8 8 8 8 8 7 8 7 7
9 9 9 9 9 8 9 9 9 8 8 8 8 8 8 8 8 8 8 8 7 7 7 7 7 7 7 6 6 6 6 6 7 6 6 6 5 4
9 9 9 8 8 9 9 9 9 8 8 8 8 8 8 8 7 7 7 7 6 6 5 5 5 4 4 4 4 3 3 2 2 2 1 1 1 0
8 8 8 8 8 8 8 7 7 7 7 7 7 6 6 6 5 5 4 4 4 4 3 3 2 2 1 1 1 -1 -1 -2 -2 -2 -2 -2 -3 -3
4 5 5 6 6 6 6 6 5 4 4 4 3 3 2 2 2 2 2 2 2 2 1 0 -1 -1 -1 -2 -2 -3 -3 -4 -4 -4 -4 -4 -5 -5
3 2 1 2 3 3 3 3 2 1 1 1 0 0 -0 -1 0 0 1 1 0 -0 -1 -2 -2 -3 -4 -5 -4 -5 -5 -5 -5 -5 -5 -5 -5 -5
1 -1 -1 -0 -0 -0 -0 -2 -2 -2 -2 -2 -2 -1 -1 -1 -2 -2 -2 -2 -3 -3 -3 -4 -4 -5 -6 -6 -7 -8 -7 -7 -6 -6 -6 -6 -6 -6
-1 -3 -3 -2 -2 -2 -3 -3 -3 -3 -3 -3 -3 -4 -4 -5 -5 -4 -4 -4 -6 -6 -6 -6 -5 -6 -8 -8 -8 -9 -9 -9 -10 -8 -8 -8 -8 -8
-5 -5 -4 -3 -3 -3 -4 -4 -4 -5 -6 -7 -8 -8 -8 -6 -6 -7 -7 -7 -8 -9 -7 -6 -7 -7 -7 -8 -9 -10 -10 -10 -9 -8 -8 -8 -9 -10
-6 -5 -5 -5 -5 -5 -5 -5 -5 -6 -6 -8 -9 -9 -9 -9 -9 -8 -9 -9 -9 -9 -8 -8 -8 -8 -9 -9 -9 -9 -9 -9 -9 -9 -9 -8 -9 -10
-6 -7 -7 -7 -7 -8 -7 -7 -7 -8 -9 -9 -9 -10 -10 -10 -10 -10 -10 -10 -11 -11 -11 -9 -8 -9 -10 -10 -10 -10 -10 -10 -10 -10 -10 -9 -8 -9
-7 -8 -9 -9 -10 -10 -9 -9 -9 -10 -10 -10 -10 -10 -11 -11 -11 -10 -10 -11 -12 -12 -12 -12 -10 -10 -10 -11 -11 -12 -11 -11 -11 -10 -11 -10 -10 -10
-10 -11 -11 -12 -12 -12 -12 -11 -11 -11 -11 -11 -11 -11 -12 -12 -12 -13 -12 -12 -12 -13 -13 -13 -12 -12 -12 -13 -13 -12 -13 -12 -13 -12 -11 -10 -10 -10
-12 -12 -12 -13 -13 -13 -13 -14 -13 -13 -14 -14 -13 -13 -13 -14 -14 -14 -14 -14 -14 -14 -14 -14 -14 -14 -14 -14 -13 -13 -13 -13 -13 -13 -13 -12 -11 -10
-14 -14 -14 -14 -14 -15 -15 -15 -15 -14 -15 -15 -15 -14 -15 -15 -15 -15 -15 -15 -15 -15 -15 -14 -14 -14 -14 -13 -14 -14 -13 -13 -13 -13 -13 -12 -12 -12
-15 -15 -14 -14 -14 -15 -15 -15 -15 -14 -15 -14 -15 -16 -16 -16 -16 -16 -16 -16 -16 -16 -15 -15 -15 -14 -14 -14 -14 -14 -14 -14 -13 -13 -12 -12 -11 -11

GFSNE_850_temp_105.txt.gz
Temp
10 9 10 10 10 10 11 11 11 11 10 11 11 12 12 12 12 12 12 12 12 12 12 11 11 11 11 11 10 10 10 10 10 10 10 10 10 10
9 9 9 9 9 10 11 11 11 11 11 11 11 11 12 12 12 12 11 11 11 11 11 11 11 11 11 11 11 11 10 10 10 10 10 10 10 10
10 9 9 10 10 10 11 11 11 11 10 11 10 11 10 11 11 11 11 11 11 11 11 11 11 11 11 11 10 10 10 10 10 10 10 10 10 9
9 9 9 10 9 10 10 10 10 10 10 10 10 10 10 11 10 10 10 10 10 10 10 11 10 10 10 10 9 9 9 9 9 9 9 9 9 8
10 10 10 10 9 9 9 9 9 9 9 9 10 10 10 10 10 10 10 10 10 10 10 10 10 9 9 9 9 9 9 9 9 9 9 9 9 8
9 9 10 9 9 9 9 9 9 9 9 8 9 9 9 10 9 9 9 9 10 9 9 9 9 9 9 9 9 9 9 9 9 9 9 9 9 8
9 9 9 9 9 9 8 8 8 8 8 8 8 9 9 9 9 9 8 9 9 9 9 9 9 9 9 9 9 8 8 8 8 8 8 8 8 7
9 9 9 9 8 8 8 8 8 8 8 8 8 8 8 8 8 9 9 8 8 9 8 8 8 8 8 8 7 7 7 7 7 6 6 6 6 6
9 8 8 8 8 8 8 8 8 8 8 8 8 7 8 8 8 8 8 8 8 8 7 7 6 6 6 5 5 5 4 4 3 3 3 3 3 2
8 8 8 9 9 8 8 8 8 8 8 8 8 7 7 7 7 7 7 7 6 6 5 5 5 4 3 3 2 1 1 0 0 -0 -1 -1 -2 -2
8 8 8 8 8 8 8 8 8 7 7 7 6 6 5 6 6 6 5 4 4 4 3 3 2 1 0 0 -1 -1 -1 -2 -2 -3 -3 -4 -4 -4
6 7 7 7 7 7 5 6 6 5 4 4 3 2 2 1 3 3 3 3 3 2 1 0 -1 -1 -2 -2 -3 -3 -3 -3 -3 -4 -4 -4 -5 -5
3 2 3 3 3 4 3 2 1 1 1 1 1 1 0 1 1 1 1 1 0 0 -1 -1 -2 -3 -5 -5 -6 -4 -5 -5 -5 -5 -5 -5 -5 -5
1 0 1 -1 2 3 1 0 -0 -0 -1 -1 -1 -1 -1 -1 -1 -2 -2 -2 -2 -2 -3 -3 -3 -4 -6 -7 -7 -7 -7 -7 -6 -6 -6 -6 -6 -6
-4 -1 -2 -2 -0 -2 -3 -3 -3 -3 -3 -3 -3 -3 -4 -4 -4 -4 -3 -3 -3 -4 -4 -5 -6 -6 -6 -7 -8 -8 -8 -8 -8 -8 -7 -7 -7 -7
-2 -4 -5 -5 -5 -5 -5 -5 -6 -6 -5 -5 -6 -6 -6 -6 -5 -5 -5 -5 -5 -4 -5 -6 -6 -7 -7 -7 -8 -9 -9 -9 -8 -8 -8 -8 -8 -8
-5 -5 -5 -5 -5 -6 -6 -7 -7 -8 -7 -7 -8 -7 -6 -6 -6 -7 -7 -7 -7 -6 -7 -7 -7 -8 -9 -9 -9 -9 -9 -10 -9 -9 -8 -8 -9 -8
-6 -7 -7 -7 -6 -7 -7 -7 -7 -8 -9 -9 -8 -8 -8 -8 -8 -8 -9 -9 -10 -9 -8 -9 -9 -9 -10 -10 -10 -10 -10 -10 -10 -10 -10 -9 -9 -9
-6 -7 -8 -8 -9 -9 -9 -9 -9 -9 -9 -9 -9 -9 -9 -9 -9 -10 -11 -11 -11 -12 -11 -10 -10 -10 -10 -10 -11 -12 -11 -11 -11 -11 -11 -11 -10 -10
-9 -10 -10 -11 -11 -10 -11 -11 -10 -10 -9 -10 -11 -11 -12 -12 -11 -11 -11 -12 -12 -12 -13 -12 -12 -12 -12 -13 -13 -12 -13 -13 -13 -13 -12 -11 -11 -11
-11 -11 -12 -11 -12 -12 -11 -11 -12 -12 -12 -12 -12 -13 -12 -13 -13 -13 -13 -13 -13 -13 -13 -13 -13 -14 -14 -14 -13 -14 -13 -13 -14 -14 -13 -12 -11 -10
-12 -13 -13 -13 -13 -13 -13 -13 -13 -13 -12 -12 -12 -13 -14 -14 -14 -14 -14 -14 -14 -14 -14 -14 -14 -14 -14 -14 -14 -14 -14 -14 -13 -13 -13 -13 -13 -12
-13 -13 -13 -13 -13 -13 -13 -12 -13 -13 -13 -13 -14 -14 -14 -15 -16 -16 -16 -16 -15 -15 -15 -15 -15 -15 -15 -15 -15 -15 -15 -14 -14 -13 -12 -13 -12 -11

GFSNE_850_temp_108.txt.gz
Temp
10 10 10 9 10 10 10 10 11 10 11 11 11 11 11 11 11 11 11 11 11 11 11 11 11 11 11 11 11 11 11 10 11 10 10 10 10 9
10 10 10 9 9 9 9 10 10 11 12 12 12 11 11 11 11 11 11 11 11 11 11 11 11 11 10 11 11 10 10 10 10 10 10 9 9 9
10 10 10 9 9 9 9 9 9 10 11 11 11 11 11 11 11 11 11 11 11 11 11 11 11 10 10 10 10 10 10 10 10 9 9 9 8 9
10 10 10 9 9 9 9 9 10 9 10 10 10 10 10 10 10 11 11 11 11 10 10 10 10 9 9 9 9 9 9 9 8 8 8 8 9 8
10 10 10 9 9 9 9 9 9 9 9 10 11 10 10 10 9 10 10 10 9 9 9 9 9 9 9 10 9 9 9 9 9 9 9 8 8 8
9 10 10 9 9 10 9 9 9 9 10 9 9 9 9 9 9 10 9 9 9 9 9 9 9 9 9 8 8 9 9 9 8 8 9 8 8 8
9 9 9 9 9 9 9 9 9 8 9 8 8 9 8 8 9 9 9 9 9 8 8 9 8 8 8 8 8 8 8 8 7 7 7 7 7 7
9 9 9 9 9 9 9 9 8 8 8 8 8 8 8 8 8 8 8 8 8 8 7 8 8 7 7 7 7 7 6 6 6 6 5 5 4 3
9 9 9 9 9 9 9 8 8 8 8 8 8 8 8 8 8 8 8 8 8 7 7 7 7 5 5 6 5 4 5 4 4 3 3 2 2 2
8 9 9 8 8 8 9 8 8 8 8 8 8 8 8 8 8 8 7 7 7 7 6 5 4 3 3 2 2 2 1 1 1 0 0 -1 -1 -1
8 8 8 8 8 8 8 8 8 8 8 8 8 7 8 7 7 7 6 6 5 4 4 3 3 2 1 0 -1 -1 -1 -1 -2 -2 -3 -3 -3 -3
6 6 7 7 7 6 7 6 6 6 6 5 5 4 5 4 5 5 5 3 3 3 2 1 0 -0 -1 -2 -3 -3 -4 -4 -4 -4 -3 -3 -4 -4
2 2 2 3 3 4 4 3 3 2 2 2 1 1 2 1 2 2 2 2 1 1 0 -0 -2 -3 -4 -5 -6 -6 -5 -4 -4 -4 -4 -4 -4 -4
0 0 -1 -0 1 2 2 2 2 1 0 -0 0 -0 -1 -1 -1 -1 -1 -1 -0 -0 -0 -1 -2 -4 -5 -6 -6 -7 -6 -5 -5 -5 -5 -6 -6 -6
-1 -2 -2 -1 -1 -1 -1 -1 -1 -1 -2 -2 -3 -3 -3 -3 -2 -2 -2 -2 -2 -3 -4 -4 -4 -4 -5 -6 -6 -7 -8 -7 -7 -6 -6 -7 -6 -6
-3 -3 -3 -3 -2 -3 -4 -3 -3 -4 -4 -3 -3 -4 -4 -4 -5 -5 -4 -4 -4 -4 -4 -5 -5 -5 -6 -7 -7 -8 -8 -8 -8 -8 -7 -8 -8 -7
-4 -4 -4 -4 -4 -4 -4 -4 -5 -6 -5 -5 -5 -5 -5 -6 -6 -6 -6 -6 -7 -7 -6 -7 -7 -8 -8 -8 -9 -9 -9 -9 -9 -9 -8 -8 -9 -8
-5 -5 -6 -6 -6 -7 -7 -7 -7 -7 -7 -7 -7 -7 -8 -9 -9 -9 -9 -8 -8 -8 -8 -8 -8 -9 -9 -9 -10 -10 -10 -10 -11 -11 -11 -9 -9 -10
-6 -7 -7 -8 -8 -8 -8 -9 -8 -9 -10 -10 -10 -9 -10 -10 -10 -10 -10 -10 -9 -10 -10 -10 -10 -10 -10 -10 -11 -12 -11 -12 -12 -11 -11 -11 -10 -9
-8 -8 -9 -9 -10 -9 -10 -10 -10 -11 -10 -10 -10 -10 -10 -11 -11 -11 -11 -12 -12 -11 -11 -12 -11 -12 -12 -12 -12 -12 -13 -13 -13 -12 -12 -11 -11 -11
-9 -9 -10 -10 -11 -11 -11 -11 -11 -12 -12 -12 -12 -12 -12 -12 -12 -12 -12 -12 -13 -13 -13 -13 -13 -14 -14 -13 -14 -14 -13 -14 -14 -14 -13 -12 -11 -10
-11 -12 -12 -12 -12 -12 -12 -12 -13 -13 -13 -13 -13 -13 -13 -13 -13 -14 -14 -14 -14 -14 -14 -14 -14 -14 -14 -14 -14 -14 -14 -14 -14 -13 -13 -13 -13 -12
-14 -14 -14 -14 -13 -13 -13 -14 -14 -14 -14 -14 -14 -14 -14 -14 -14 -14 -14 -14 -14 -14 -14 -14 -14 -14 -15 -15 -15 -15 -15 -15 -14 -13 -13 -14 -13 -13

GFSNE_850_temp_114.txt.gz
Temp
10 10 9 10 10 10 10 10 9 9 8 10 10 10 11 11 11 10 10 10 10 10 9 9 9 9 9 9 9 9 10 9 9 9 9 9 9 9
9 9 9 10 10 10 10 10 9 9 9 10 9 10 11 11 10 10 11 10 10 10 10 9 9 9 9 9 9 9 9 9 9 9 9 9 9 9
9 9 9 9 10 9 9 9 9 9 9 9 10 9 9 10 10 10 10 10 10 10 10 9 9 9 9 9 9 9 9 9 9 9 9 9 9 9
10 9 10 9 10 10 9 9 9 9 9 10 10 8 8 9 10 10 10 10 9 10 10 10 10 10 9 10 10 10 10 10 10 9 9 9 9 9
9 9 9 9 9 9 9 9 9 8 9 9 8 8 9 9 9 9 9 9 10 10 10 10 10 10 10 10 10 10 9 9 9 9 9 9 9 8
9 9 9 9 10 10 9 9 9 8 8 8 8 8 8 9 9 9 9 9 9 9 9 9 9 9 9 9 9 9 9 9 9 8 8 8 7 8
9 9 9 9 10 10 9 9 9 8 8 8 8 8 8 8 8 9 9 8 8 8 8 8 9 9 9 9 9 9 9 9 8 8 7 8 7 7
9 9 9 9 9 9 9 9 9 8 8 8 9 8 9 9 9 9 8 8 7 7 7 8 8 8 7 7 7 8 8 7 7 7 7 6 5 5
9 9 9 9 9 9 9 9 9 9 9 9 9 8 8 9 8 8 8 8 8 7 7 7 7 6 6 6 6 6 6 5 5 4 3 3 2 2
9 9 9 9 9 9 8 9 9 8 8 8 8 8 8 8 8 8 8 8 8 7 7 6 6 5 4 2 3 3 3 2 2 1 1 1 0 -0
8 8 8 8 8 8 8 8 8 8 8 8 8 8 8 8 8 8 7 7 7 6 6 6 4 2 0 -1 -1 -0 1 1 1 -0 -1 -1 -1 -1
6 7 6 8 8 8 8 7 7 7 7 7 7 7 7 7 7 7 7 7 7 5 4 3 1 0 -2 -3 -4 -2 -3 -2 -3 -3 -3 -2 -2 -3
1 1 2 3 3 4 5 5 4 5 4 4 3 3 3 4 5 5 4 4 3 3 2 1 1 -1 -1 -3 -4 -4 -4 -4 -5 -4 -4 -4 -4 -4
-0 -1 0 -1 0 -0 0 1 0 0 1 0 0 -0 -0 1 -0 1 1 1 1 1 -0 0 0 -1 -1 -3 -4 -5 -5 -6 -5 -5 -5 -5 -4 -4
-2 -3 -2 -2 -2 -2 -3 -2 -2 -2 -2 -1 -1 -1 -2 -2 -3 -3 -3 -3 -2 -2 -3 -3 -2 -3 -3 -3 -3 -5 -6 -6 -6 -5 -6 -6 -5 -6
-4 -3 -3 -3 -3 -3 -4 -4 -3 -3 -2 -3 -3 -4 -4 -4 -4 -5 -5 -5 -4 -4 -4 -4 -5 -5 -5 -5 -6 -7 -8 -8 -8 -8 -7 -8 -7 -7
-5 -5 -4 -4 -4 -5 -5 -4 -5 -5 -5 -5 -5 -6 -6 -7 -6 -7 -6 -5 -4 -5 -5 -5 -5 -6 -7 -7 -7 -8 -9 -8 -7 -8 -8 -8 -9 -8
-6 -5 -5 -6 -6 -6 -6 -7 -7 -7 -7 -7 -7 -7 -7 -7 -7 -7 -8 -7 -6 -7 -7 -7 -7 -8 -9 -9 -9 -9 -9 -10 -10 -10 -9 -8 -8 -9
-6 -7 -7 -8 -8 -8 -8 -8 -8 -8 -9 -8 -8 -8 -8 -8 -8 -9 -9 -9 -9 -9 -9 -9 -9 -9 -9 -9 -11 -11 -11 -11 -11 -11 -10 -10 -9 -9
-8 -9 -9 -10 -10 -10 -10 -10 -10 -10 -10 -10 -10 -10 -10 -10 -10 -10 -10 -10 -10 -10 -10 -10 -10 -10 -10 -11 -12 -12 -12 -11 -11 -11 -10 -10 -10 -10
-10 -10 -11 -11 -11 -11 -11 -11 -11 -11 -11 -11 -11 -11 -11 -11 -11 -11 -11 -11 -11 -11 -11 -11 -11 -11 -12 -12 -13 -13 -13 -13 -13 -13 -12 -11 -10 -10
-12 -13 -13 -13 -13 -13 -13 -13 -13 -12 -12 -12 -12 -12 -12 -12 -12 -12 -12 -12 -12 -12 -12 -12 -12 -13 -13 -13 -14 -14 -14 -13 -13 -14 -14 -13 -13 -12
-14 -14 -14 -14 -14 -13 -13 -13 -13 -13 -13 -13 -13 -13 -13 -13 -13 -13 -13 -14 -14 -14 -14 -14 -14 -14 -14 -14 -15 -15 -15 -14 -13 -13 -14 -14 -14 -14

GFSNE_850_temp_117.txt.gz
Temp
12 11 11 11 11 10 10 9 10 9 9 9 10 11 10 10 10 11 10 10 9 9 9 8 9 9 9 9 9 8 8 8 9 9 9 9 8 9
11 11 11 11 10 10 10 10 10 10 9 10 11 11 10 10 10 11 10 10 10 9 9 9 9 9 9 9 9 8 8 8 8 9 9 9 9 9
11 11 11 10 10 10 9 9 9 9 9 9 9 10 9 10 9 10 10 10 10 10 9 9 9 9 9 9 9 8 8 9 9 9 9 9 9 9
11 11 10 9 9 9 9 9 9 9 9 9 9 9 9 9 9 9 10 10 10 10 10 10 9 9 9 9 9 9 9 9 9 10 9 9 9 9
11 10 10 9 9 9 9 10 9 9 9 9 9 9 9 8 9 9 9 9 9 9 9 9 9 10 9 9 9 9 9 10 10 9 9 9 9 8
10 10 9 9 9 9 9 9 9 9 9 9 8 9 8 8 8 8 8 9 9 9 9 9 10 9 10 10 10 9 9 9 9 9 9 9 8 8
10 9 9 9 9 9 9 10 9 9 8 8 8 8 8 8 8 8 7 9 9 8 9 9 9 9 9 9 9 9 9 9 9 9 8 8 8 7
9 9 9 9 9 9 9 9 9 9 9 9 8 8 9 8 8 8 8 8 8 8 8 8 8 8 8 8 8 9 9 8 7 7 7 7 7 6
9 9 8 9 9 9 9 9 9 9 9 9 8 9 9 9 8 8 8 8 8 8 8 7 7 7 6 7 7 7 7 6 6 5 5 5 4 4
9 9 8 8 8 9 9 9 8 8 8 8 8 8 8 8 8 8 8 8 7 8 7 6 6 6 5 4 4 5 5 4 2 2 2 2 2 2
6 7 8 8 8 8 8 9 8 8 8 8 8 8 8 8 8 8 8 8 7 7 7 6 5 3 1 1 0 1 1 0 -0 -1 -0 -0 -0 -1
3 3 4 7 7 7 8 8 7 7 8 8 8 8 8 8 8 8 7 7 7 6 4 3 4 1 -3 -4 -3 -2 -2 -2 -2 -2 -1 -2 -2 -3
2 1 2 1 2 3 3 4 4 5 4 4 5 5 6 5 6 6 6 5 5 5 4 2 1 -1 -1 -4 -5 -4 -4 -4 -4 -4 -5 -5 -4 -4
-1 -1 -1 -0 -0 -0 0 0 0 0 1 -0 0 0 1 2 2 2 2 3 2 2 2 0 1 -1 -1 -3 -6 -6 -6 -5 -6 -6 -5 -5 -4 -4
-3 -4 -3 -2 -2 -2 -2 -2 -2 -2 -2 -2 -2 -2 -4 -3 -2 -2 -2 -2 -1 -1 -2 -1 -1 -3 -3 -3 -4 -6 -6 -7 -7 -6 -6 -5 -5 -5
-4 -3 -3 -4 -3 -3 -3 -3 -3 -3 -3 -3 -3 -4 -5 -5 -3 -3 -3 -3 -2 -3 -3 -4 -3 -4 -4 -4 -5 -6 -7 -6 -6 -6 -6 -6 -6 -6
-5 -5 -4 -4 -4 -5 -5 -5 -5 -5 -5 -5 -5 -5 -5 -5 -5 -5 -5 -6 -5 -6 -6 -6 -6 -6 -6 -6 -6 -7 -8 -8 -8 -7 -7 -8 -8 -7
-6 -5 -5 -6 -6 -6 -6 -7 -6 -6 -7 -7 -7 -7 -7 -7 -7 -7 -7 -7 -7 -8 -8 -8 -7 -7 -7 -8 -8 -9 -8 -9 -9 -9 -8 -8 -8 -8
-6 -7 -7 -7 -8 -8 -8 -8 -8 -8 -8 -8 -8 -8 -8 -9 -10 -9 -9 -8 -8 -8 -8 -8 -8 -8 -8 -10 -10 -10 -11 -10 -10 -9 -9 -9 -9 -9
-8 -9 -9 -9 -9 -9 -10 -9 -9 -10 -9 -9 -9 -9 -10 -10 -9 -9 -9 -9 -9 -9 -9 -9 -9 -9 -11 -12 -13 -11 -11 -11 -11 -11 -10 -10 -10 -10
-10 -10 -11 -11 -11 -11 -11 -11 -11 -10 -10 -10 -10 -10 -10 -11 -10 -10 -11 -10 -11 -11 -11 -11 -10 -10 -11 -11 -12 -13 -12 -12 -12 -12 -11 -11 -11 -11
-12 -12 -12 -12 -12 -12 -12 -12 -12 -12 -12 -12 -12 -12 -12 -12 -12 -12 -12 -11 -11 -11 -11 -12 -12 -12 -12 -13 -14 -13 -13 -13 -14 -13 -12 -12 -12 -13
-14 -14 -14 -14 -13 -13 -13 -13 -13 -13 -13 -13 -13 -13 -13 -13 -12 -12 -12 -12 -12 -13 -13 -13 -13 -13 -13 -13 -14 -14 -13 -13 -13 -13 -14 -13 -13 -13

GFSNE_850_temp_123.txt.gz
Temp
13 13 13 13 13 12 12 11 12 12 12 12 11 10 11 12 12 11 11 10 10 10 9 9 9 9 9 8 8 8 8 8 8 8 8 8 8 8
13 12 13 13 13 12 12 12 12 11 11 12 11 10 10 11 11 11 11 11 10 9 9 9 9 9 8 8 8 8 8 8 8 8 8 8 8 8
13 12 12 12 12 12 12 12 12 12 11 12 10 11 10 10 10 10 10 10 10 9 9 9 9 9 9 9 8 8 8 8 8 8 8 8 8 8
13 14 13 13 13 12 12 11 11 11 11 11 11 11 11 10 9 9 9 9 9 9 9 9 10 9 9 9 8 8 8 8 8 8 8 8 8 8
12 11 11 12 12 12 12 12 11 11 11 10 10 10 10 10 10 9 9 9 9 9 8 8 9 9 9 9 9 8 8 8 8 8 8 9 8 9
11 11 11 11 11 11 11 11 11 10 10 10 10 10 10 10 9 9 9 9 9 9 8 8 9 9 9 9 9 9 9 9 9 9 9 9 8 9
10 10 10 10 11 11 11 11 10 10 10 10 9 9 10 9 9 9 9 8 8 8 8 8 9 9 8 9 9 9 9 9 9 9 9 9 9 9
10 9 9 10 10 10 10 10 9 11 10 9 9 9 9 9 9 9 8 8 8 8 8 8 8 8 8 8 9 9 9 9 9 9 8 8 9 8
7 8 8 9 9 9 9 9 9 9 9 9 9 9 9 9 9 8 8 8 8 8 8 7 7 7 8 7 8 8 9 9 9 8 8 8 8 7
4 4 6 7 7 8 8 8 8 8 8 9 9 9 9 9 9 8 9 8 8 7 7 7 8 7 6 6 6 7 8 8 8 7 7 7 6 5
2 2 3 3 4 5 6 6 7 7 8 9 9 9 8 8 8 8 8 8 7 7 8 7 6 5 5 4 5 6 6 6 6 6 5 4 2 1
0 0 1 2 2 3 4 4 3 3 3 6 5 5 7 7 8 8 8 7 7 7 7 6 6 5 1 1 2 1 2 1 1 1 1 -0 -1 -1
-1 -1 -1 -1 -0 0 1 2 1 1 1 2 2 2 3 5 5 6 6 7 6 7 7 6 6 4 3 1 -2 -3 -2 -3 -3 -2 -2 -3 -3 -3
-4 -4 -4 -3 -2 -2 -1 -2 -2 -1 -1 0 0 1 1 2 1 3 2 3 4 4 4 4 3 3 2 -1 -4 -6 -6 -5 -5 -4 -4 -4 -4 -5
-5 -5 -5 -4 -4 -3 -3 -3 -3 -3 -3 -2 -2 -3 -2 -3 -2 -0 -0 -0 0 0 0 -1 -0 0 -1 -1 -3 -7 -8 -7 -7 -6 -6 -6 -5 -6
-5 -5 -5 -5 -5 -5 -5 -4 -4 -4 -5 -5 -5 -5 -5 -4 -4 -4 -3 -2 -2 -2 -2 -3 -2 -2 -3 -3 -4 -7 -7 -7 -8 -8 -8 -9 -8 -8
-7 -7 -6 -6 -6 -6 -6 -6 -6 -6 -6 -6 -6 -6 -6 -5 -5 -5 -5 -5 -4 -5 -5 -5 -5 -4 -4 -5 -6 -7 -8 -7 -8 -8 -8 -9 -10 -9
-9 -9 -10 -10 -10 -10 -10 -9 -8 -7 -8 -8 -8 -7 -7 -6 -6 -6 -6 -6 -7 -7 -7 -7 -7 -6 -7 -8 -8 -8 -8 -8 -8 -9 -9 -9 -10 -9
-11 -11 -11 -11 -11 -11 -11 -10 -11 -11 -10 -10 -9 -9 -9 -9 -8 -8 -7 -7 -8 -8 -8 -8 -8 -7 -8 -9 -10 -9 -9 -9 -9 -11 -11 -10 -10 -10
-12 -12 -12 -12 -12 -12 -12 -13 -12 -12 -12 -11 -12 -11 -11 -11 -11 -11 -11 -10 -10 -9 -9 -9 -9 -9 -8 -9 -10 -10 -10 -11 -11 -11 -11 -11 -10 -9
-14 -13 -14 -14 -14 -14 -14 -14 -13 -13 -13 -12 -12 -12 -12 -12 -12 -12 -11 -11 -11 -11 -11 -11 -10 -10 -9 -10 -10 -11 -11 -11 -10 -11 -11 -11 -11 -10
-16 -15 -16 -16 -16 -16 -15 -15 -14 -14 -14 -13 -13 -13 -13 -12 -12 -12 -12 -12 -12 -12 -12 -12 -11 -12 -11 -10 -12 -13 -12 -11 -11 -10 -10 -10 -11 -10
-17 -17 -17 -18 -18 -17 -17 -16 -16 -16 -16 -15 -15 -14 -14 -13 -13 -13 -13 -13 -13 -13 -12 -12 -12 -12 -12 -12 -12 -13 -12 -13 -13 -12 -11 -11 -11 -10

GFSNE_850_temp_129.txt.gz
Temp
12 12 12 12 12 12 12 12 12 12 13 13 13 13 13 12 12 13 12 12 12 12 11 11 10 10 9 9 9 9 9 9 8 8 8 7 7 7
12 12 12 12 12 12 12 13 12 12 10 12 13 13 13 13 12 12 12 12 12 11 11 11 10 10 9 9 9 9 9 8 8 8 8 8 8 7
12 12 12 12 14 12 11 12 13 13 10 12 13 12 12 12 12 11 12 12 11 11 11 11 11 10 10 9 9 9 9 9 8 8 8 8 8 8
12 12 12 12 12 12 11 11 12 12 11 11 12 12 11 11 12 11 11 11 11 11 10 10 10 10 10 10 9 9 8 8 8 8 8 8 8 8
11 11 11 11 11 11 11 11 11 11 11 11 12 12 11 11 11 11 11 10 11 11 11 10 10 10 10 9 9 9 8 8 8 8 8 8 8 8
10 10 10 10 11 11 11 11 11 11 11 11 11 11 12 11 10 10 10 10 10 11 11 10 10 9 9 9 9 9 8 8 8 8 8 8 7 7
8 8 8 9 9 10 10 10 10 10 10 11 11 11 11 11 11 10 10 10 10 10 11 10 9 9 9 9 9 9 9 8 8 8 7 7 7 7
7 6 6 6 7 7 8 8 9 9 10 10 10 10 10 10 10 11 10 9 9 10 10 10 9 9 9 9 10 9 9 8 8 8 7 7 7 7
4 4 5 5 6 6 6 6 6 7 8 8 9 8 9 9 9 9 9 9 8 8 9 9 9 9 9 9 10 9 9 8 7 8 8 8 8 8
1 2 2 2 3 4 4 4 5 4 5 5 6 6 7 8 7 8 8 8 8 8 9 8 9 8 8 8 9 8 9 8 8 8 8 8 7 7
-0 -0 0 1 1 1 2 2 2 2 2 2 3 3 4 5 4 7 6 7 7 7 8 8 8 8 8 8 7 7 7 8 8 8 7 7 8 7
-1 -1 -1 -1 -1 0 1 1 1 1 1 1 0 1 1 2 2 4 4 4 5 5 6 7 8 8 6 6 6 6 6 7 7 7 7 7 7 7
-2 -2 -3 -3 -3 -2 -2 -2 -2 -2 -1 -1 -1 -1 -1 -0 0 1 1 2 3 2 3 4 4 5 5 5 3 3 3 3 4 5 5 4 4 4
-6 -6 -5 -5 -4 -4 -4 -4 -3 -3 -3 -2 -2 -2 -1 -2 -2 -2 -1 -1 -0 1 1 2 2 2 2 2 2 0 -2 -1 -1 0 -0 -1 -1 -1
-9 -9 -8 -8 -6 -5 -5 -5 -5 -4 -4 -3 -4 -4 -4 -4 -4 -3 -3 -2 -2 -1 -0 -0 -0 -1 -0 0 0 -1 -3 -5 -5 -4 -3 -3 -3 -3
-10 -10 -9 -9 -8 -7 -6 -6 -6 -7 -7 -6 -6 -6 -6 -5 -4 -4 -3 -3 -3 -2 -3 -2 -2 -2 -2 -2 -2 -2 -4 -4 -6 -5 -4 -4 -4 -4
-11 -10 -9 -9 -9 -9 -9 -8 -8 -8 -7 -8 -8 -7 -7 -6 -6 -6 -5 -5 -5 -5 -5 -4 -4 -4 -3 -4 -4 -5 -6 -6 -6 -7 -7 -7 -7 -7
-11 -12 -12 -12 -12 -12 -12 -11 -11 -11 -11 -10 -10 -9 -9 -8 -8 -7 -7 -7 -7 -7 -7 -7 -7 -6 -6 -7 -7 -7 -8 -7 -8 -8 -8 -8 -8 -8
-13 -14 -14 -14 -14 -14 -13 -13 -13 -13 -12 -12 -12 -11 -11 -10 -9 -9 -9 -8 -8 -8 -8 -8 -7 -7 -7 -9 -10 -9 -8 -9 -9 -9 -9 -9 -9 -9
-15 -16 -16 -16 -16 -15 -15 -15 -14 -14 -13 -13 -13 -12 -12 -12 -11 -11 -11 -10 -9 -9 -9 -8 -8 -8 -7 -8 -10 -10 -10 -10 -10 -10 -10 -10 -10 -10
-17 -17 -18 -17 -17 -17 -16 -16 -16 -15 -15 -14 -13 -13 -13 -13 -12 -12 -11 -11 -11 -10 -10 -9 -9 -9 -9 -9 -9 -10 -10 -10 -10 -10 -10 -10 -10 -10
-18 -18 -18 -18 -18 -18 -18 -17 -17 -16 -15 -15 -14 -14 -14 -13 -13 -13 -12 -12 -12 -12 -11 -11 -11 -11 -10 -10 -10 -10 -11 -11 -11 -11 -11 -11 -11 -11
-18 -18 -19 -19 -19 -19 -18 -18 -18 -18 -17 -16 -16 -15 -15 -14 -14 -14 -13 -13 -12 -12 -12 -12 -12 -11 -11 -11 -11 -11 -12 -12 -12 -11 -11 -11 -11 -11

GFSNE_850_temp_132.txt.gz
Temp
12 11 12 12 12 12 12 12 12 12 12 13 13 14 13 13 13 13 13 13 13 12 12 11 11 11 10 10 9 9 9 9 9 8 8 9 9 8
11 11 11 11 12 12 12 11 12 12 12 13 14 14 13 12 12 12 12 13 13 12 12 12 11 11 10 10 10 9 9 9 9 9 8 9 8 8
11 11 11 11 11 11 11 12 11 12 11 13 13 13 12 12 12 12 12 12 12 12 12 11 11 11 10 10 10 9 9 9 8 8 8 9 9 8
11 11 11 11 12 11 11 11 11 12 11 12 12 13 12 11 12 12 12 12 12 12 12 11 11 10 10 9 10 9 10 9 9 8 8 8 8 8
11 11 11 11 12 12 11 11 11 11 10 10 11 12 12 11 11 11 11 11 11 11 11 11 10 10 10 10 9 9 9 9 9 8 8 8 8 8
9 10 9 10 11 10 11 11 10 10 10 10 11 11 11 11 11 10 11 11 11 11 11 10 10 10 10 9 9 9 9 9 9 9 9 8 8 8
6 7 5 6 9 7 8 9 9 10 10 10 10 10 10 10 10 10 10 10 10 10 10 10 10 10 10 9 9 9 9 9 9 9 9 8 8 8
3 2 5 5 6 6 7 8 7 8 8 8 8 9 9 9 9 10 10 10 10 10 10 10 10 10 11 9 8 9 9 9 9 9 9 8 8 8
2 2 3 4 3 4 3 5 5 6 6 6 6 6 7 7 9 9 9 9 9 9 9 9 9 9 9 9 8 8 9 9 9 9 9 9 8 8
1 1 1 0 1 2 2 3 3 3 3 3 4 4 4 5 5 6 7 8 8 8 8 8 8 8 9 9 8 8 8 9 9 9 9 9 8 7
-1 -0 1 1 1 1 1 1 1 1 1 1 2 2 2 2 2 4 4 5 7 7 7 7 7 7 8 8 8 8 9 9 8 8 8 8 8 7
-2 -2 -1 -2 -2 -1 -1 -0 0 -0 -1 -1 -1 -1 -1 0 1 1 2 2 3 3 4 4 5 5 6 7 7 8 8 8 8 7 8 8 8 8
-5 -5 -6 -5 -4 -3 -3 -2 -3 -3 -2 -2 -2 -1 -1 -1 -1 -0 0 1 1 0 1 1 2 3 3 4 5 5 6 5 6 5 5 6 6 6
-6 -7 -7 -6 -5 -5 -4 -5 -5 -4 -4 -3 -2 -2 -2 -2 -2 -2 -2 -2 -2 -1 -0 -1 -1 -0 0 1 1 2 1 0 0 1 1 2 2 2
-8 -9 -9 -8 -7 -6 -6 -6 -6 -5 -5 -5 -5 -5 -5 -5 -4 -4 -3 -3 -3 -3 -2 -1 -1 -1 -2 -2 -1 -0 -0 -1 -2 -3 -2 -2 -1 -2
-9 -9 -9 -9 -9 -9 -8 -8 -8 -8 -8 -8 -7 -7 -7 -5 -5 -4 -4 -4 -3 -3 -3 -2 -2 -3 -3 -2 -3 -3 -2 -3 -4 -4 -4 -4 -4 -3
-12 -11 -10 -9 -9 -9 -10 -10 -10 -10 -10 -10 -9 -9 -8 -7 -7 -6 -6 -5 -5 -4 -4 -4 -4 -4 -4 -4 -4 -4 -6 -6 -5 -6 -5 -5 -5 -5
-12 -12 -12 -13 -13 -13 -13 -12 -12 -12 -12 -12 -11 -11 -10 -10 -9 -8 -8 -8 -7 -6 -6 -6 -7 -6 -6 -6 -7 -7 -7 -7 -7 -7 -7 -7 -7 -7
-13 -13 -13 -14 -14 -15 -15 -15 -14 -14 -14 -13 -13 -13 -12 -12 -11 -11 -10 -9 -9 -9 -8 -7 -7 -7 -7 -6 -9 -8 -8 -8 -8 -9 -9 -8 -8 -9
-15 -16 -16 -16 -16 -16 -16 -16 -16 -15 -15 -15 -14 -14 -13 -13 -12 -12 -11 -11 -10 -10 -9 -8 -8 -8 -8 -8 -9 -9 -10 -9 -9 -9 -9 -9 -10 -10
-16 -17 -17 -17 -18 -18 -17 -17 -17 -17 -16 -16 -15 -15 -14 -14 -13 -13 -13 -12 -11 -11 -11 -10 -9 -9 -9 -9 -9 -10 -10 -10 -10 -10 -10 -10 -10 -10
-17 -18 -18 -18 -18 -18 -18 -18 -18 -17 -16 -16 -16 -16 -15 -15 -14 -14 -14 -13 -12 -12 -12 -12 -11 -11 -10 -10 -10 -10 -11 -11 -11 -10 -10 -10 -10 -10
-18 -18 -18 -19 -19 -19 -19 -19 -18 -18 -17 -17 -17 -17 -16 -15 -15 -15 -15 -14 -13 -13 -12 -12 -12 -11 -11 -11 -11 -11 -11 -11 -11 -11 -11 -11 -11 -11

GFSNE_850_temp_135.txt.gz
Temp
14 14 14 14 14 13 13 13 14 12 12 13 13 14 13 13 14 13 13 13 12 12 12 12 11 11 10 10 10 10 9 9 9 9 9 8 8 8
14 14 14 13 13 13 13 13 12 12 12 12 13 14 13 13 13 13 13 13 12 12 12 12 11 11 11 10 10 10 10 9 9 9 9 9 8 8
13 14 14 13 12 12 12 12 12 12 11 12 12 13 12 12 12 12 12 12 12 12 13 12 12 12 11 11 10 10 9 10 9 9 9 9 9 8
11 13 12 11 12 11 11 11 12 12 12 12 12 12 11 12 12 12 12 11 12 12 12 12 12 12 12 11 11 10 10 10 10 10 9 9 9 9
11 11 11 11 11 11 11 11 11 11 12 11 11 12 11 11 12 12 12 13 12 12 13 12 12 11 11 11 10 10 10 10 10 10 10 9 9 8
7 6 8 9 11 10 11 10 11 10 11 11 10 10 10 11 11 11 11 11 12 12 12 12 12 11 11 10 10 10 10 10 10 10 10 9 9 9
3 5 3 2 5 8 9 9 8 10 9 10 9 10 10 10 10 10 10 10 10 11 11 11 11 11 11 10 10 9 10 9 10 9 9 9 9 9
2 2 3 1 -2 2 4 6 4 5 6 7 8 7 9 9 9 9 9 9 9 10 9 10 10 10 10 10 9 9 9 8 9 9 9 9 9 9
1 1 2 2 4 4 3 3 3 4 4 4 6 5 5 6 6 7 7 7 8 8 8 9 9 10 10 10 10 9 9 8 8 8 8 8 9 9
-2 -2 -1 -0 0 1 1 2 3 3 3 2 2 2 3 3 3 3 4 5 6 7 7 6 8 8 8 8 9 9 9 9 9 8 8 8 8 8
-3 -3 -3 -2 -2 -1 -0 0 0 1 1 0 -0 -0 -1 0 2 2 2 3 4 4 4 5 5 6 7 7 7 7 7 8 8 8 8 8 8 9
-4 -5 -5 -5 -4 -3 -2 -2 -1 -2 -2 -2 -2 -2 -1 -1 -0 0 0 0 0 1 2 2 2 3 4 6 6 7 7 7 7 7 8 8 8 8
-5 -6 -6 -6 -6 -5 -4 -3 -3 -4 -4 -3 -2 -2 -2 -2 -2 -1 -1 -1 -1 -1 -1 -0 -0 0 1 1 3 4 4 4 5 5 7 7 7 7
-7 -7 -7 -7 -7 -7 -7 -7 -6 -6 -5 -4 -4 -3 -2 -3 -3 -3 -3 -3 -2 -2 -1 -2 -2 -2 -1 -1 -1 1 1 1 1 2 3 3 3 3
-10 -10 -9 -8 -8 -8 -7 -7 -7 -6 -6 -6 -7 -7 -7 -6 -5 -6 -5 -5 -4 -4 -4 -3 -3 -2 -2 -3 -3 -2 -2 -1 -1 -1 -1 -1 0 1
-12 -12 -11 -10 -10 -10 -9 -8 -9 -9 -9 -10 -9 -9 -9 -8 -7 -7 -6 -6 -5 -5 -5 -4 -3 -3 -3 -3 -4 -4 -3 -3 -3 -4 -4 -4 -3 -3
-11 -10 -9 -10 -10 -10 -10 -11 -11 -11 -10 -10 -10 -10 -10 -9 -9 -9 -9 -8 -8 -7 -7 -6 -6 -6 -5 -5 -5 -5 -5 -6 -6 -6 -6 -5 -5 -5
-11 -10 -11 -11 -12 -12 -13 -12 -12 -13 -13 -13 -13 -13 -12 -11 -11 -10 -10 -10 -10 -9 -9 -8 -8 -8 -8 -7 -7 -7 -7 -7 -7 -7 -7 -7 -7 -7
-13 -14 -14 -14 -14 -14 -15 -15 -15 -15 -15 -15 -14 -14 -14 -13 -13 -12 -11 -11 -11 -10 -10 -9 -8 -8 -8 -8 -9 -9 -9 -8 -8 -8 -8 -8 -8 -8
-15 -16 -16 -16 -16 -16 -16 -16 -15 -15 -15 -15 -15 -15 -15 -14 -14 -13 -13 -13 -12 -12 -11 -11 -10 -9 -9 -9 -9 -9 -10 -9 -9 -9 -9 -9 -9 -9
-17 -17 -18 -18 -18 -18 -18 -18 -17 -17 -16 -16 -16 -16 -16 -16 -15 -14 -14 -14 -13 -13 -12 -12 -11 -11 -10 -10 -10 -10 -10 -10 -10 -10 -10 -10 -10 -10
-17 -18 -18 -18 -19 -19 -19 -19 -19 -18 -17 -17 -17 -17 -17 -17 -16 -15 -15 -15 -14 -14 -13 -12 -12 -11 -11 -11 -11 -11 -11 -11 -10 -10 -10 -10 -10 -10
-18 -18 -19 -19 -19 -19 -20 -20 -20 -19 -19 -19 -18 -18 -18 -17 -17 -16 -16 -16 -15 -15 -14 -13 -12 -12 -12 -12 -12 -11 -11 -11 -11 -11 -11 -11 -11 -10

GFSNE_850_temp_138.txt.gz
Temp
10 12 13 14 14 14 14 14 13 13 14 15 14 15 15 14 14 14 13 13 13 12 12 12 11 11 11 10 10 10 10 10 10 9 9 9 9 9
10 11 12 13 14 14 14 14 14 13 13 14 14 13 13 13 14 14 13 13 13 13 12 12 11 11 11 11 10 10 10 10 10 10 9 9 9 9
10 10 10 11 13 14 14 14 13 13 13 13 13 13 13 13 13 13 13 13 13 13 13 13 12 12 12 12 11 11 11 10 9 10 10 10 9 9
11 11 11 11 11 12 13 13 13 13 12 13 13 13 13 13 12 12 12 12 12 12 13 13 13 12 12 12 12 11 11 11 10 10 9 9 9 9
9 12 10 10 11 11 12 13 12 12 12 11 12 12 12 12 12 12 12 12 12 12 12 12 13 13 13 12 12 11 11 11 10 10 10 9 9 9
7 7 6 7 9 7 10 11 10 11 11 11 11 10 11 11 11 11 11 11 11 11 11 12 12 12 12 12 12 11 11 11 10 10 9 9 9 9
5 6 5 4 3 3 6 7 8 8 10 10 9 9 9 10 9 9 10 10 10 10 11 11 11 11 12 11 11 11 11 11 10 10 9 10 10 9
2 1 3 3 2 3 4 3 4 5 6 7 7 8 6 6 6 6 8 8 9 9 9 10 10 10 11 11 11 10 10 10 10 10 9 9 9 9
0 2 2 2 1 1 2 3 4 3 3 2 4 5 4 4 2 4 5 6 6 7 7 8 8 9 8 9 9 9 9 9 9 9 9 8 8 8
-3 -2 -0 0 -0 -0 -0 0 1 1 1 1 -0 2 1 -0 1 2 3 5 4 4 5 5 7 7 8 8 7 8 9 9 8 8 8 8 7 8
-3 -3 -4 -3 -3 -2 -1 -1 -2 -1 -1 -2 -2 -1 -0 -0 0 1 2 3 3 3 3 2 3 4 6 6 6 7 7 7 7 7 7 8 8 8
-4 -4 -5 -4 -4 -3 -3 -4 -3 -4 -4 -4 -3 -3 -2 -2 -1 -0 -1 -1 0 0 -0 -1 1 1 2 4 4 4 4 4 5 5 6 6 6 6
-8 -7 -7 -6 -5 -6 -5 -5 -5 -6 -5 -5 -4 -4 -4 -3 -3 -3 -3 -3 -2 -2 -3 -3 -2 -1 -2 -1 2 3 2 3 3 3 4 4 4 5
-8 -9 -9 -8 -7 -7 -6 -7 -7 -6 -5 -5 -5 -4 -4 -4 -5 -5 -5 -4 -4 -4 -4 -4 -4 -4 -5 -4 -3 -0 0 0 0 1 1 1 2 2
-11 -10 -9 -9 -8 -8 -8 -7 -7 -6 -7 -6 -7 -7 -7 -8 -7 -6 -6 -6 -6 -6 -6 -6 -6 -5 -5 -5 -6 -4 -3 -1 -2 -1 -0 0 0 0
-10 -10 -10 -10 -10 -9 -9 -9 -9 -9 -10 -10 -10 -10 -10 -8 -8 -8 -7 -6 -6 -6 -7 -7 -6 -6 -5 -5 -6 -5 -5 -5 -4 -4 -3 -3 -3 -3
-13 -12 -11 -10 -10 -11 -11 -11 -11 -10 -10 -10 -11 -10 -10 -10 -10 -10 -10 -9 -9 -8 -7 -7 -8 -8 -7 -7 -6 -6 -6 -6 -6 -6 -6 -6 -5 -5
-12 -12 -13 -14 -14 -14 -14 -14 -14 -14 -14 -13 -13 -13 -12 -12 -12 -12 -12 -11 -11 -11 -10 -9 -8 -8 -8 -8 -8 -7 -8 -7 -8 -7 -7 -7 -7 -6
-14 -15 -15 -16 -16 -16 -16 -16 -16 -16 -16 -16 -15 -15 -15 -14 -14 -14 -13 -13 -12 -12 -12 -11 -11 -10 -9 -9 -9 -9 -9 -9 -9 -8 -8 -8 -8 -7
-15 -16 -16 -17 -17 -18 -18 -18 -18 -17 -17 -17 -17 -16 -17 -16 -16 -15 -15 -14 -14 -13 -13 -12 -12 -12 -11 -11 -10 -10 -10 -10 -10 -9 -9 -9 -9 -9
-16 -16 -16 -17 -18 -18 -19 -19 -18 -18 -18 -17 -17 -17 -17 -17 -17 -16 -16 -15 -15 -15 -14 -13 -13 -12 -12 -12 -11 -11 -11 -10 -10 -10 -10 -10 -10 -10
-17 -17 -18 -18 -18 -18 -18 -18 -18 -19 -19 -18 -18 -18 -18 -18 -18 -17 -17 -17 -16 -16 -15 -14 -13 -13 -12 -12 -12 -12 -11 -11 -10 -10 -10 -10 -10 -10
-18 -18 -18 -18 -19 -19 -20 -20 -20 -21 -21 -21 -20 -19 -19 -18 -18 -18 -18 -18 -17 -16 -16 -15 -14 -13 -13 -13 -12 -12 -12 -12 -11 -11 -11 -11 -10 -10

GFSNE_850_temp_144.txt.gz
Temp
9 10 10 10 11 11 12 12 12 14 13 13 13 13 13 13 13 12 14 14 14 13 13 13 12 12 12 12 11 11 11 11 11 10 10 10 10 10
9 9 9 10 10 11 12 11 11 12 13 13 13 13 14 13 13 12 14 14 14 14 13 13 12 12 12 12 12 12 11 11 11 11 11 10 10 10
7 9 9 9 9 9 10 11 12 11 11 13 13 13 14 14 13 13 13 14 14 14 14 13 13 12 12 12 12 12 12 11 11 11 10 10 10 10
7 8 8 8 9 9 10 10 10 10 10 11 12 12 13 14 15 14 14 13 13 14 14 13 13 12 12 12 12 12 11 11 11 11 11 10 10 10
5 6 6 7 7 8 9 10 10 10 10 11 11 11 12 11 12 12 13 12 12 12 13 13 12 12 13 12 12 11 11 11 11 11 11 10 10 10
2 3 3 4 5 5 7 8 9 10 10 11 10 10 11 11 11 11 11 11 11 11 12 11 12 12 11 11 11 11 11 10 11 11 11 11 10 10
-2 -1 -1 -1 0 1 3 7 8 9 9 9 9 8 8 9 10 10 10 10 10 10 10 10 11 11 10 10 10 10 10 10 10 11 10 11 11 10
-2 -2 -3 -2 -2 -1 -2 2 3 5 7 8 6 8 6 4 8 7 7 7 7 9 9 9 9 10 10 10 10 10 10 10 10 10 10 11 11 11
-3 -3 -2 -3 -1 -3 -2 -1 0 -0 0 0 1 1 1 1 1 4 3 4 5 5 7 7 6 7 8 8 7 8 9 9 9 9 9 9 9 10
-4 -5 -4 -4 -4 -3 -3 -2 -2 -3 -2 -2 -2 -2 -2 -1 1 1 2 1 0 2 4 4 3 4 5 7 5 4 6 6 7 7 8 8 9 9
-5 -6 -5 -5 -4 -3 -2 -3 -4 -5 -6 -5 -5 -4 -2 -2 -1 -1 -0 -0 -1 -1 0 2 2 2 2 4 4 5 2 4 6 6 6 7 7 7
-6 -6 -7 -7 -6 -4 -3 -3 -2 -4 -4 -4 -5 -5 -4 -4 -3 -3 -2 -2 -2 -2 -2 -2 -1 -1 -0 -0 1 1 1 3 4 4 3 4 5 5
-8 -8 -8 -7 -6 -6 -6 -5 -6 -5 -5 -5 -5 -4 -5 -4 -4 -5 -5 -4 -5 -6 -4 -4 -3 -2 -2 -1 0 0 1 1 1 2 2 3 4 4
-10 -11 -10 -9 -8 -8 -7 -7 -7 -6 -6 -6 -6 -6 -6 -6 -7 -6 -7 -7 -7 -7 -6 -6 -6 -6 -5 -5 -4 -2 -2 -1 0 1 1 1 1 1
-11 -11 -10 -10 -9 -9 -9 -9 -8 -8 -8 -8 -8 -8 -8 -8 -10 -8 -8 -8 -8 -9 -8 -8 -7 -7 -7 -8 -8 -5 -5 -4 -3 -2 -1 -1 -1 -0
-14 -13 -12 -14 -13 -13 -12 -11 -11 -11 -11 -11 -11 -11 -11 -11 -12 -12 -12 -11 -11 -10 -11 -10 -9 -9 -9 -9 -9 -8 -7 -7 -5 -5 -4 -3 -3 -3
-16 -16 -16 -16 -16 -16 -16 -14 -14 -14 -14 -14 -13 -12 -11 -12 -14 -14 -13 -12 -12 -11 -11 -10 -10 -10 -10 -9 -9 -9 -9 -8 -8 -7 -6 -5 -5 -4
-15 -15 -16 -16 -17 -17 -17 -17 -17 -17 -15 -16 -16 -15 -15 -16 -15 -15 -14 -13 -13 -12 -12 -11 -11 -10 -9 -8 -9 -10 -10 -10 -10 -9 -8 -8 -8 -7
-15 -15 -16 -16 -16 -17 -18 -18 -18 -19 -19 -19 -18 -18 -18 -18 -17 -16 -15 -14 -14 -13 -13 -12 -11 -10 -10 -10 -9 -10 -11 -11 -11 -9 -9 -9 -8 -8
-15 -15 -15 -16 -16 -17 -17 -18 -18 -19 -19 -19 -19 -19 -19 -19 -18 -17 -17 -16 -16 -15 -14 -13 -12 -12 -13 -13 -12 -12 -11 -11 -12 -11 -9 -9 -9 -9
-17 -17 -16 -16 -16 -17 -18 -18 -18 -19 -20 -20 -20 -20 -20 -20 -19 -19 -18 -18 -17 -16 -15 -14 -14 -14 -14 -12 -12 -11 -10 -11 -11 -11 -11 -10 -9 -8
-19 -18 -18 -18 -18 -17 -17 -18 -18 -18 -19 -19 -20 -20 -21 -21 -20 -20 -19 -19 -18 -17 -16 -16 -15 -14 -14 -12 -12 -11 -11 -11 -12 -12 -11 -11 -10 -9
-20 -20 -20 -20 -19 -19 -18 -18 -18 -19 -19 -20 -20 -21 -21 -21 -21 -20 -20 -19 -19 -18 -18 -17 -16 -15 -14 -13 -13 -12 -12 -12 -12 -11 -11 -11 -10 -10

GFSNE_850_temp_147.txt.gz
Temp
5 7 8 9 10 11 10 11 11 12 11 12 13 14 14 14 14 13 13 13 13 14 13 13 13 13 12 12 12 12 12 11 11 11 11 11 11 10
5 7 8 9 9 10 11 11 11 11 12 12 13 14 14 13 13 13 13 13 13 14 14 13 13 13 12 12 12 12 11 11 11 11 11 11 10 10
6 7 8 9 9 10 10 10 10 11 11 12 12 13 13 13 13 13 13 13 13 14 14 14 14 13 13 12 12 12 12 11 11 11 11 11 10 10
5 6 8 8 9 9 9 10 10 10 10 10 11 11 12 13 13 13 13 13 13 14 14 14 13 13 13 13 12 12 12 12 12 11 11 11 10 10
3 3 6 6 7 8 9 8 9 9 10 10 10 10 10 11 12 12 12 12 12 12 12 13 13 13 13 12 12 12 12 12 11 11 11 11 11 10
1 2 1 4 5 6 7 8 8 8 9 9 9 9 9 9 10 9 12 12 11 11 11 12 13 13 12 11 11 11 11 11 11 11 11 11 11 10
-2 -2 -2 -2 -1 0 2 4 6 6 7 8 9 8 9 8 9 7 7 10 10 10 11 10 10 11 11 11 11 11 11 11 11 11 11 11 11 10
-4 -3 -2 -2 -2 -2 -2 -1 1 2 2 3 2 4 2 5 6 7 4 6 7 9 9 8 9 9 9 9 10 10 10 11 10 10 10 10 10 10
-5 -5 -4 -3 -3 -4 -2 -1 -1 -3 -2 -3 -2 0 0 -0 1 6 5 4 3 3 5 6 5 6 6 7 9 9 9 9 9 10 10 9 9 10
-6 -6 -5 -4 -4 -3 -5 -3 -3 -4 -5 -5 -4 -3 -2 -1 0 1 1 -0 1 1 2 3 3 2 3 3 3 6 6 6 6 7 8 8 8 8
-7 -7 -7 -6 -5 -5 -4 -4 -5 -5 -6 -6 -5 -4 -2 -2 -1 -1 0 -0 -1 -1 -0 0 0 0 1 2 0 1 2 3 4 6 6 6 6 6
-9 -8 -8 -7 -7 -6 -5 -5 -5 -6 -6 -5 -4 -4 -3 -3 -3 -2 -2 -2 -3 -3 -3 -2 -3 -2 -1 -1 -1 -2 0 1 1 1 2 4 4 4
-11 -10 -10 -9 -8 -7 -7 -6 -7 -6 -7 -6 -6 -5 -5 -5 -5 -5 -5 -5 -5 -6 -6 -4 -4 -4 -4 -4 -3 -3 -2 -2 -1 0 1 1 2 2
-13 -14 -13 -12 -10 -9 -8 -8 -8 -7 -8 -8 -8 -8 -8 -8 -7 -7 -7 -7 -8 -7 -7 -6 -6 -6 -6 -6 -6 -4 -3 -2 -2 -2 -1 -0 -0 -0
-15 -15 -15 -15 -14 -12 -11 -10 -9 -9 -9 -9 -10 -10 -10 -10 -10 -9 -9 -9 -9 -10 -9 -9 -8 -8 -7 -9 -8 -7 -8 -5 -5 -4 -3 -2 -2 -1
-14 -14 -14 -14 -15 -15 -15 -13 -13 -13 -13 -14 -13 -12 -12 -11 -11 -11 -11 -11 -11 -10 -10 -10 -10 -10 -10 -9 -9 -9 -8 -8 -8 -8 -7 -5 -4 -5
-13 -13 -14 -14 -15 -15 -15 -16 -16 -16 -16 -16 -15 -15 -14 -14 -13 -14 -13 -13 -12 -12 -11 -11 -11 -10 -10 -9 -8 -8 -8 -9 -8 -9 -8 -8 -7 -7
-13 -13 -14 -14 -14 -15 -15 -16 -16 -17 -17 -17 -17 -17 -17 -16 -16 -15 -14 -14 -13 -13 -12 -12 -11 -11 -10 -9 -9 -9 -10 -9 -10 -10 -10 -8 -8 -8
-14 -13 -14 -14 -14 -14 -15 -16 -16 -17 -17 -17 -17 -18 -18 -17 -17 -16 -15 -15 -15 -14 -14 -12 -12 -11 -11 -11 -11 -11 -12 -11 -11 -10 -10 -9 -8 -8
-15 -15 -15 -15 -15 -15 -16 -16 -17 -17 -17 -18 -18 -18 -18 -18 -17 -17 -17 -17 -16 -16 -14 -13 -13 -13 -14 -13 -13 -12 -11 -11 -10 -11 -11 -11 -9 -8
-16 -16 -16 -16 -17 -16 -16 -16 -17 -17 -18 -18 -18 -18 -19 -19 -18 -18 -18 -18 -17 -16 -15 -15 -14 -14 -14 -13 -13 -12 -11 -11 -10 -11 -11 -12 -11 -9
-18 -18 -18 -18 -18 -18 -18 -17 -17 -17 -17 -18 -18 -19 -19 -19 -19 -19 -19 -19 -18 -17 -17 -16 -16 -15 -15 -13 -13 -12 -12 -11 -11 -11 -11 -11 -11 -11
-20 -20 -20 -20 -20 -20 -19 -19 -19 -18 -18 -18 -19 -19 -20 -19 -19 -19 -19 -19 -19 -19 -18 -17 -17 -17 -16 -15 -14 -13 -12 -12 -11 -11 -11 -11 -11 -10

GFSNE_850_temp_150.txt.gz
Temp
2 3 3 4 5 7 7 9 10 10 11 12 13 13 13 13 13 13 14 14 14 14 14 13 13 13 13 12 12 12 12 11 11 11 11 11 10 10
3 4 4 5 6 7 8 9 10 10 11 12 12 13 13 13 13 12 13 14 14 14 14 13 14 14 14 13 12 12 12 12 11 11 11 10 11 11
1 1 5 5 7 7 8 8 9 9 9 11 11 12 12 13 13 14 12 13 14 14 14 14 14 14 14 13 13 12 12 12 12 11 11 11 10 10
-3 -1 1 3 5 6 7 7 8 9 9 9 10 11 11 11 11 12 11 12 13 13 14 14 14 13 13 13 13 12 12 12 11 11 11 11 11 10
-6 -5 -3 0 4 5 6 7 8 9 9 9 9 9 10 10 10 9 12 12 9 12 13 13 13 13 13 12 12 11 11 11 11 11 11 10 10 10
-6 -6 -7 -3 0 1 5 6 6 7 7 8 8 8 8 10 9 9 9 9 8 6 11 12 12 12 11 11 11 11 10 11 11 11 11 11 10 10
-7 -6 -6 -7 -3 -3 0 1 3 4 4 4 5 5 6 7 7 7 8 8 8 7 1 11 11 11 11 11 11 11 10 11 11 11 11 11 10 10
-6 -6 -5 -5 -5 -4 -3 -4 -3 -1 -1 -1 -1 -2 -2 -1 1 4 6 8 8 6 1 4 7 8 9 9 10 10 10 10 10 10 10 10 10 10
-6 -5 -5 -5 -4 -5 -4 -4 -5 -4 -4 -4 -4 -4 -3 -3 -1 0 3 4 3 5 4 0 2 2 4 5 8 9 9 9 9 9 9 10 10 10
-7 -7 -6 -6 -6 -5 -5 -5 -5 -6 -6 -5 -5 -6 -4 -4 -3 -3 -1 -0 -0 1 3 1 1 -0 0 1 2 3 4 5 5 5 6 7 7 9
-9 -11 -9 -8 -7 -6 -5 -6 -5 -6 -6 -6 -6 -6 -6 -4 -4 -2 -1 -1 -1 -2 -1 1 -1 -0 -0 -0 0 1 1 2 2 2 2 3 4 4
-9 -10 -13 -12 -8 -7 -6 -7 -6 -7 -6 -5 -5 -5 -4 -4 -4 -5 -5 -5 -4 -4 -5 -5 -4 -2 -1 -1 -2 -0 -0 1 0 1 1 2 2 2
-11 -12 -13 -14 -12 -9 -9 -9 -10 -9 -8 -7 -6 -6 -6 -6 -6 -7 -7 -7 -6 -7 -8 -6 -6 -4 -5 -4 -4 -3 -2 -2 -2 -1 -0 0 -1 -0
-13 -14 -14 -14 -11 -11 -11 -11 -10 -9 -9 -9 -8 -8 -8 -8 -9 -9 -9 -9 -10 -9 -9 -7 -8 -7 -7 -5 -5 -4 -3 -3 -3 -3 -2 -1 -1 0
-13 -13 -14 -14 -14 -13 -12 -11 -10 -11 -11 -11 -11 -12 -12 -12 -10 -10 -10 -10 -10 -10 -10 -10 -10 -9 -8 -9 -9 -8 -7 -6 -7 -6 -5 -4 -3 -2
-13 -13 -13 -14 -14 -14 -15 -14 -14 -15 -15 -15 -14 -14 -13 -12 -12 -13 -12 -12 -12 -12 -11 -11 -11 -10 -9 -9 -9 -8 -8 -8 -8 -8 -6 -6 -5 -5
-13 -13 -13 -14 -14 -15 -15 -16 -16 -15 -16 -16 -16 -15 -15 -15 -15 -15 -14 -14 -14 -13 -12 -11 -11 -11 -10 -10 -9 -9 -9 -9 -9 -9 -8 -7 -6 -7
-13 -14 -14 -14 -14 -15 -15 -16 -16 -17 -17 -17 -17 -17 -17 -17 -17 -16 -16 -16 -15 -15 -14 -13 -12 -12 -12 -10 -11 -11 -10 -10 -10 -10 -10 -10 -9 -7
-15 -15 -15 -15 -15 -15 -15 -16 -16 -17 -17 -17 -18 -18 -18 -18 -18 -17 -17 -17 -17 -16 -15 -15 -14 -14 -15 -14 -12 -12 -12 -11 -11 -10 -10 -10 -10 -8
-16 -16 -17 -17 -17 -16 -16 -16 -16 -16 -17 -17 -18 -18 -18 -19 -19 -18 -18 -18 -18 -17 -17 -16 -16 -16 -15 -15 -14 -13 -12 -12 -12 -11 -11 -11 -10 -9
-18 -18 -18 -18 -18 -18 -18 -17 -17 -17 -17 -17 -18 -18 -19 -19 -19 -19 -19 -19 -19 -19 -18 -18 -17 -17 -17 -16 -15 -14 -14 -12 -12 -12 -11 -11 -11 -10
-19 -20 -20 -20 -20 -19 -19 -19 -18 -18 -18 -18 -18 -19 -19 -20 -20 -20 -20 -20 -20 -20 -19 -19 -19 -18 -17 -17 -16 -16 -15 -13 -12 -12 -11 -11 -11 -11
-21 -21 -21 -21 -21 -21 -21 -21 -20 -20 -19 -19 -19 -19 -20 -20 -20 -20 -20 -20 -20 -20 -20 -20 -20 -19 -19 -18 -17 -17 -16 -14 -13 -12 -11 -11 -11 -11

GFSNE_850_temp_153.txt.gz
Temp
1 2 2 2 3 3 4 4 5 6 8 10 10 12 12 12 13 13 12 13 13 13 13 14 14 14 13 13 13 12 12 12 12 11 11 11 10 10
-2 -0 1 2 3 3 4 4 6 6 7 9 11 11 12 12 12 12 12 12 12 12 12 13 14 14 13 13 13 12 12 12 12 11 11 11 11 10
-3 -3 -2 -1 1 2 4 4 6 6 7 9 9 10 11 11 12 12 12 11 11 12 12 12 13 14 13 13 13 13 12 12 12 11 11 11 11 11
-6 -5 -5 -3 -1 1 3 4 6 7 8 8 8 9 9 9 10 10 10 10 10 10 10 11 12 13 14 13 13 13 12 12 12 11 11 11 11 11
-6 -8 -7 -6 -4 -0 -0 3 6 5 7 7 8 8 8 9 9 9 9 9 9 10 9 10 11 12 12 13 13 13 12 12 12 11 11 11 11 10
-5 -6 -8 -9 -8 -4 -2 2 2 4 6 5 5 6 6 6 7 7 7 8 9 8 10 10 8 9 8 11 12 12 12 11 11 11 10 11 11 10
-5 -6 -6 -6 -8 -8 -7 -4 -1 1 2 2 2 2 3 4 4 5 4 4 7 7 8 9 9 6 7 6 11 12 11 11 10 10 10 10 10 10
-5 -6 -6 -5 -6 -6 -6 -7 -5 -4 -4 -4 -3 -3 -2 -1 -0 2 3 2 2 4 4 3 4 2 3 2 3 11 10 10 10 11 10 10 10 10
-7 -6 -6 -7 -7 -6 -6 -6 -6 -7 -7 -6 -6 -5 -4 -4 -2 -2 -1 -0 -1 -2 0 0 1 0 0 -0 -1 4 10 10 10 10 10 10 10 10
-11 -10 -8 -7 -7 -6 -6 -6 -5 -6 -6 -8 -8 -7 -6 -5 -3 -3 -2 -3 -3 -2 -2 -3 -2 -1 -0 -0 -2 -1 1 3 4 6 8 9 9 9
-11 -13 -11 -10 -9 -8 -6 -7 -8 -8 -7 -7 -7 -7 -6 -5 -3 -2 -2 -2 -4 -5 -3 -5 -4 -4 -3 -1 -2 -3 -1 -1 0 1 2 3 4 5
-12 -13 -14 -13 -9 -8 -7 -7 -8 -9 -7 -7 -7 -7 -7 -8 -6 -5 -6 -5 -5 -5 -7 -6 -5 -4 -5 -5 -5 -3 -3 -4 -2 1 -1 1 1 2
-13 -13 -14 -14 -14 -11 -10 -10 -11 -9 -8 -8 -8 -8 -8 -8 -9 -10 -10 -10 -10 -10 -10 -8 -8 -7 -8 -7 -6 -6 -6 -6 -5 -3 -1 -2 -3 0
-14 -14 -14 -14 -13 -12 -11 -11 -10 -9 -9 -9 -9 -9 -10 -10 -11 -11 -10 -11 -11 -11 -10 -10 -10 -10 -9 -8 -7 -6 -6 -7 -7 -6 -5 -4 -3 -3
-13 -14 -14 -14 -14 -13 -13 -12 -11 -11 -11 -10 -12 -13 -13 -13 -11 -10 -10 -10 -11 -11 -11 -11 -10 -10 -10 -9 -9 -9 -8 -8 -7 -7 -5 -5 -4 -4
-13 -14 -14 -15 -15 -15 -15 -14 -14 -14 -14 -14 -14 -14 -13 -12 -13 -12 -12 -11 -11 -11 -11 -11 -11 -11 -10 -9 -9 -9 -9 -9 -9 -8 -7 -6 -6 -6
-14 -14 -14 -15 -15 -15 -16 -16 -16 -16 -16 -15 -15 -15 -14 -14 -14 -14 -14 -13 -14 -13 -13 -13 -12 -11 -12 -11 -10 -11 -10 -9 -10 -10 -9 -7 -7 -8
-14 -15 -15 -16 -16 -16 -16 -16 -16 -17 -17 -17 -17 -17 -16 -17 -17 -16 -16 -15 -16 -16 -16 -16 -15 -12 -10 -10 -12 -12 -12 -12 -11 -11 -10 -10 -8 -8
-15 -16 -16 -17 -17 -17 -17 -17 -17 -17 -17 -17 -18 -18 -17 -17 -18 -18 -18 -17 -17 -17 -17 -17 -17 -17 -17 -17 -13 -13 -14 -13 -13 -12 -11 -11 -11 -10
-17 -17 -18 -18 -18 -18 -18 -18 -17 -17 -18 -18 -18 -18 -18 -19 -19 -19 -19 -19 -19 -19 -18 -18 -19 -19 -19 -18 -18 -15 -15 -14 -14 -13 -12 -12 -11 -10
-18 -18 -19 -19 -19 -19 -19 -18 -18 -18 -18 -19 -19 -19 -19 -19 -20 -20 -20 -20 -19 -20 -20 -20 -20 -19 -18 -18 -17 -16 -13 -14 -14 -14 -13 -13 -11 -11
-18 -19 -19 -20 -20 -20 -20 -19 -19 -19 -19 -19 -20 -20 -20 -19 -20 -20 -21 -21 -21 -21 -21 -21 -20 -19 -19 -20 -19 -18 -17 -14 -14 -13 -13 -13 -12 -11
-19 -19 -20 -20 -20 -20 -20 -20 -20 -20 -20 -20 -21 -21 -20 -20 -20 -21 -21 -21 -21 -21 -22 -22 -21 -21 -21 -20 -20 -19 -18 -17 -16 -14 -12 -12 -11 -12

GFSNE_850_temp_159.txt.gz
Temp
-5 -4 -4 -3 -2 -2 -1 -2 -3 -2 0 3 3 4 6 7 9 10 10 11 11 12 12 11 12 13 12 12 12 12 13 13 12 11 11 11 11 11
-5 -5 -5 -4 -3 -3 -2 -1 -2 -3 -2 1 4 5 5 6 8 9 10 9 10 11 11 11 12 12 12 12 12 12 12 12 12 12 12 11 11 11
-4 -5 -5 -5 -4 -4 -4 -3 -3 -3 -3 1 4 3 4 5 7 8 9 9 10 10 11 11 10 10 10 10 11 11 11 11 12 12 12 12 11 11
-5 -4 -5 -6 -5 -5 -4 -4 -4 -4 -4 -1 1 3 5 6 7 8 9 9 9 9 10 10 10 10 10 10 11 10 9 11 12 11 11 11 11 11
-6 -5 -5 -5 -7 -6 -5 -4 -4 -5 -5 -4 -1 1 3 4 5 7 7 8 8 8 9 9 10 10 10 9 9 10 9 10 9 10 11 11 11 11
-6 -6 -5 -6 -6 -7 -7 -5 -4 -4 -5 -5 -4 -3 -0 -0 3 3 3 4 6 7 8 8 8 9 9 9 9 9 10 10 9 9 9 9 10 10
-7 -6 -7 -7 -7 -7 -8 -7 -5 -4 -5 -6 -7 -7 -4 -2 -0 -0 -1 1 2 3 5 5 6 8 7 7 7 7 9 9 10 9 9 9 10 10
-7 -7 -6 -6 -7 -7 -7 -7 -7 -6 -7 -7 -9 -9 -7 -6 -4 -2 -1 -1 -2 -1 -0 1 1 2 2 2 4 5 5 5 7 8 8 9 11 11
-8 -8 -7 -7 -7 -7 -7 -7 -8 -9 -9 -8 -8 -9 -9 -7 -5 -4 -2 -2 -4 -5 -4 -4 -3 -3 -3 -3 -2 -0 1 3 5 7 8 8 10 11
-10 -10 -9 -8 -8 -8 -7 -8 -8 -8 -9 -10 -9 -8 -8 -7 -6 -5 -5 -5 -5 -4 -4 -6 -6 -5 -5 -4 -4 -3 -2 -1 -0 1 3 5 7 8
-11 -13 -11 -10 -9 -9 -8 -8 -8 -9 -10 -10 -10 -10 -8 -7 -6 -5 -5 -4 -5 -6 -5 -6 -6 -7 -6 -5 -5 -4 -3 -3 -3 -2 -1 -0 -1 2
-11 -12 -14 -13 -11 -10 -9 -10 -9 -9 -8 -8 -8 -8 -8 -7 -7 -7 -7 -7 -7 -7 -8 -8 -7 -6 -7 -7 -6 -5 -5 -4 -4 -3 -3 -4 -3 -2
-12 -12 -13 -15 -13 -12 -12 -12 -12 -11 -10 -10 -9 -9 -9 -10 -10 -10 -10 -9 -10 -11 -10 -9 -8 -7 -8 -8 -8 -8 -7 -6 -5 -4 -4 -4 -4 -4
-14 -14 -13 -13 -13 -13 -13 -13 -12 -11 -11 -10 -10 -11 -12 -12 -13 -13 -12 -12 -12 -12 -11 -10 -10 -9 -9 -9 -9 -9 -9 -8 -8 -7 -7 -7 -6 -4
-14 -14 -14 -14 -13 -13 -13 -13 -12 -13 -13 -12 -13 -13 -14 -13 -13 -13 -13 -12 -12 -11 -11 -11 -11 -11 -10 -11 -11 -10 -9 -10 -9 -9 -9 -9 -8 -7
-14 -14 -14 -15 -15 -15 -14 -14 -14 -14 -14 -14 -14 -15 -14 -13 -12 -12 -12 -12 -11 -12 -12 -12 -12 -12 -12 -12 -12 -11 -12 -12 -11 -11 -10 -11 -10 -8
-15 -14 -14 -14 -14 -15 -16 -16 -16 -15 -15 -15 -15 -15 -14 -14 -15 -14 -14 -13 -13 -13 -12 -12 -13 -13 -13 -13 -12 -13 -12 -12 -12 -11 -11 -10 -11 -10
-15 -14 -14 -15 -15 -16 -17 -17 -17 -17 -18 -17 -17 -16 -16 -16 -16 -16 -16 -16 -16 -16 -15 -15 -13 -12 -14 -14 -14 -14 -13 -14 -13 -12 -12 -11 -10 -11
-15 -15 -16 -16 -16 -17 -17 -18 -18 -19 -19 -19 -19 -18 -18 -18 -18 -17 -17 -17 -17 -17 -17 -17 -16 -16 -16 -17 -14 -16 -16 -15 -14 -13 -13 -12 -11 -11
-15 -16 -17 -17 -17 -18 -18 -18 -19 -19 -19 -20 -20 -20 -19 -19 -19 -19 -19 -19 -19 -18 -18 -18 -18 -19 -19 -20 -19 -17 -17 -17 -16 -15 -13 -12 -12 -11
-16 -17 -18 -18 -18 -19 -19 -19 -19 -20 -20 -20 -20 -20 -20 -20 -20 -20 -20 -20 -20 -20 -20 -20 -20 -20 -19 -18 -17 -17 -17 -17 -17 -16 -16 -15 -14 -12
-17 -17 -18 -19 -19 -20 -20 -20 -20 -20 -21 -21 -21 -20 -20 -20 -20 -20 -20 -20 -21 -21 -21 -21 -21 -20 -20 -20 -20 -19 -17 -17 -17 -16 -16 -16 -16 -15
-18 -18 -18 -19 -19 -20 -20 -20 -21 -21 -21 -22 -22 -21 -21 -20 -20 -20 -20 -21 -21 -21 -21 -21 -21 -21 -21 -21 -21 -20 -19 -18 -17 -15 -14 -15 -15 -14

GFSNE_850_temp_162.txt.gz
Temp
-4 -4 -4 -4 -5 -5 -6 -6 -6 -5 -4 -0 -0 1 4 5 5 6 8 9 10 11 11 11 11 11 11 10 11 11 11 11 11 12 12 11 10 11
-4 -4 -4 -4 -4 -5 -6 -5 -6 -6 -5 -3 -1 -0 1 3 4 6 8 9 10 10 10 10 11 11 11 10 12 11 11 11 11 12 12 12 11 11
-4 -4 -5 -5 -4 -4 -5 -6 -5 -5 -5 -3 -2 -1 1 2 3 5 7 8 8 9 9 10 10 10 10 10 11 10 10 10 11 11 11 12 11 11
-4 -4 -4 -4 -5 -5 -6 -7 -6 -6 -5 -5 -3 -1 0 0 2 3 5 6 8 9 9 10 10 10 10 9 9 9 10 10 10 10 10 11 11 11
-6 -6 -6 -5 -5 -6 -6 -6 -6 -7 -6 -5 -5 -4 -2 -1 0 -0 2 3 6 8 8 9 10 10 10 10 10 11 11 10 10 11 10 10 11 11
-7 -7 -7 -8 -7 -6 -6 -6 -6 -5 -5 -5 -4 -4 -5 -3 -1 -2 -2 0 1 5 7 7 7 9 9 9 10 9 9 9 9 10 10 10 10 10
-7 -7 -7 -8 -9 -8 -7 -7 -6 -7 -7 -7 -5 -4 -5 -5 -3 -3 -4 -3 -1 -0 -1 3 4 4 6 8 8 8 9 9 9 9 9 9 8 9
-7 -7 -7 -7 -8 -8 -8 -8 -8 -8 -8 -9 -9 -6 -6 -6 -6 -6 -4 -3 -3 -4 -2 -2 1 1 1 4 5 7 7 8 8 9 11 10 9 9
-7 -8 -7 -8 -8 -8 -8 -8 -8 -8 -9 -10 -10 -9 -7 -7 -6 -6 -7 -6 -6 -6 -5 -5 -3 -3 -5 -3 0 2 3 5 5 6 7 9 9 8
-9 -10 -9 -8 -8 -8 -8 -8 -8 -8 -9 -10 -10 -10 -9 -7 -7 -6 -6 -7 -6 -6 -6 -7 -6 -6 -5 -4 -4 -3 -3 -2 -1 -1 1 2 5 6
-10 -12 -11 -10 -9 -9 -8 -9 -9 -10 -10 -10 -10 -10 -9 -8 -7 -6 -5 -5 -7 -7 -7 -7 -8 -8 -6 -5 -4 -4 -3 -3 -3 -3 -2 -1 -0 1
-11 -11 -14 -13 -11 -10 -9 -10 -10 -10 -10 -9 -9 -9 -9 -9 -8 -9 -9 -8 -8 -8 -9 -9 -8 -7 -8 -7 -6 -5 -4 -4 -4 -3 -3 -3 -3 -2
-12 -12 -13 -13 -13 -12 -11 -11 -12 -11 -11 -11 -11 -10 -10 -10 -10 -11 -11 -11 -10 -11 -11 -9 -9 -8 -9 -9 -8 -7 -7 -6 -5 -5 -5 -4 -4 -3
-13 -13 -13 -13 -13 -12 -12 -12 -12 -11 -11 -11 -11 -12 -12 -12 -12 -12 -12 -12 -12 -12 -12 -10 -10 -9 -9 -9 -9 -9 -9 -8 -8 -7 -6 -7 -7 -5
-13 -14 -14 -14 -13 -13 -13 -13 -12 -12 -12 -12 -13 -14 -14 -14 -13 -13 -13 -13 -12 -11 -11 -11 -11 -11 -11 -11 -11 -10 -9 -9 -9 -9 -9 -7 -7 -7
-14 -14 -14 -14 -14 -14 -13 -14 -14 -14 -14 -14 -14 -15 -14 -13 -13 -13 -12 -12 -11 -12 -13 -12 -12 -12 -12 -12 -12 -11 -11 -11 -10 -10 -10 -10 -8 -9
-14 -14 -14 -13 -14 -14 -14 -15 -15 -15 -15 -16 -15 -15 -15 -15 -15 -14 -14 -14 -13 -13 -12 -13 -13 -14 -14 -13 -12 -13 -12 -12 -12 -11 -10 -10 -10 -9
-14 -14 -14 -14 -14 -15 -15 -16 -16 -16 -17 -17 -17 -17 -17 -17 -16 -16 -16 -16 -16 -16 -16 -15 -13 -13 -14 -15 -15 -14 -14 -14 -13 -12 -12 -11 -10 -11
-15 -15 -15 -15 -16 -16 -16 -16 -17 -18 -19 -18 -18 -18 -18 -18 -18 -18 -18 -17 -17 -18 -18 -17 -17 -17 -17 -18 -15 -17 -16 -15 -14 -13 -13 -13 -12 -11
-15 -15 -16 -16 -17 -17 -17 -18 -18 -19 -19 -19 -19 -19 -19 -19 -19 -19 -19 -19 -18 -18 -18 -18 -19 -19 -20 -20 -20 -17 -17 -17 -16 -15 -14 -13 -12 -12
-16 -16 -17 -17 -17 -18 -19 -19 -19 -20 -20 -20 -20 -20 -20 -20 -20 -19 -19 -19 -19 -19 -20 -20 -20 -20 -19 -19 -18 -17 -17 -17 -17 -17 -16 -15 -13 -12
-17 -17 -17 -18 -18 -19 -19 -20 -20 -21 -21 -21 -21 -21 -21 -20 -20 -20 -20 -20 -21 -21 -21 -21 -20 -20 -20 -20 -20 -19 -18 -17 -16 -16 -16 -17 -16 -15
-18 -18 -18 -19 -19 -19 -20 -20 -20 -21 -21 -21 -21 -21 -21 -20 -21 -21 -21 -21 -21 -21 -22 -21 -21 -21 -21 -20 -20 -20 -19 -18 -17 -15 -14 -15 -14 -14